GEFSMA_prec_meanprecacc_054.txt.gz
Total_Precipitation_Accumulation
1.55 1.64 1.36 1.26 1.21 1.38 1.64 1.60 1.44 1.46 1.54 1.55 1.39 1.23 1.04 0.79 0.70 0.67 0.57 0.75 0.87 0.85 0.91 0.94 0.94 0.91 0.83 0.75 0.69 0.68 0.70 0.70 0.61 0.49 0.40 0.28 0.22 0.23 0.16 0.10 0.06 0.05 0.05
1.57 1.45 1.41 1.39 1.30 1.46 1.51 1.58 1.61 1.74 1.77 1.82 1.55 1.36 1.21 1.02 0.91 0.89 0.76 0.84 0.93 0.86 0.84 0.92 0.94 0.93 0.94 0.89 0.80 0.76 0.73 0.72 0.63 0.51 0.43 0.36 0.28 0.26 0.24 0.20 0.19 0.12 0.08
1.52 1.53 1.43 1.31 1.36 1.46 1.51 1.58 1.61 1.68 1.57 1.60 1.49 1.43 1.34 1.20 1.13 1.03 0.89 0.76 0.70 0.80 0.84 0.83 0.85 0.86 0.91 0.93 0.95 0.91 0.75 0.64 0.56 0.44 0.37 0.37 0.33 0.27 0.24 0.25 0.26 0.22 0.16
1.28 1.33 1.22 1.21 1.30 1.22 1.20 1.23 1.21 1.26 1.28 1.39 1.34 1.22 1.18 1.18 1.14 1.08 0.92 0.77 0.66 0.53 0.66 0.82 0.87 0.78 0.87 0.97 1.05 1.07 0.82 0.58 0.45 0.39 0.34 0.31 0.32 0.26 0.19 0.16 0.18 0.23 0.19
0.78 0.82 0.80 0.83 0.90 0.90 0.90 0.87 1.01 1.08 1.13 1.23 1.26 1.08 1.02 1.09 1.08 1.05 0.95 0.76 0.75 0.63 0.53 0.63 0.76 0.71 0.84 0.98 1.10 1.15 1.04 0.77 0.53 0.45 0.41 0.37 0.36 0.27 0.19 0.16 0.15 0.15 0.15
0.61 0.57 0.56 0.57 0.57 0.60 0.66 0.69 0.72 0.83 0.85 0.90 0.91 0.86 0.88 0.81 0.87 0.87 0.77 0.71 0.64 0.54 0.48 0.57 0.69 0.58 0.71 0.87 0.97 1.06 1.13 1.08 0.81 0.60 0.49 0.49 0.52 0.41 0.22 0.17 0.16 0.16 0.14
0.43 0.45 0.41 0.40 0.40 0.39 0.40 0.44 0.51 0.56 0.59 0.68 0.71 0.66 0.62 0.58 0.60 0.57 0.56 0.59 0.53 0.47 0.48 0.52 0.55 0.53 0.48 0.54 0.65 0.77 0.99 1.15 1.06 0.85 0.70 0.59 0.60 0.54 0.33 0.22 0.18 0.19 0.20
0.30 0.30 0.30 0.31 0.31 0.29 0.30 0.32 0.35 0.36 0.39 0.50 0.57 0.58 0.50 0.45 0.42 0.36 0.40 0.36 0.35 0.47 0.49 0.46 0.48 0.56 0.56 0.59 0.52 0.52 0.76 0.98 1.16 1.12 0.99 0.80 0.67 0.56 0.42 0.34 0.25 0.21 0.22
0.22 0.23 0.23 0.24 0.27 0.28 0.29 0.32 0.31 0.31 0.30 0.33 0.43 0.55 0.49 0.39 0.32 0.30 0.31 0.31 0.35 0.41 0.42 0.50 0.48 0.44 0.45 0.57 0.69 0.68 0.70 0.78 1.09 1.30 1.25 0.99 0.72 0.55 0.52 0.50 0.44 0.36 0.29
0.18 0.17 0.17 0.16 0.18 0.23 0.28 0.28 0.33 0.32 0.30 0.25 0.29 0.38 0.42 0.44 0.43 0.36 0.33 0.32 0.40 0.43 0.42 0.42 0.44 0.48 0.57 0.66 0.75 0.79 0.63 0.63 0.85 1.12 1.20 1.07 0.84 0.64 0.56 0.60 0.72 0.70 0.52
0.18 0.18 0.18 0.16 0.15 0.15 0.20 0.23 0.30 0.34 0.35 0.30 0.28 0.31 0.35 0.36 0.40 0.40 0.30 0.28 0.33 0.31 0.33 0.37 0.47 0.50 0.55 0.70 0.90 0.81 0.63 0.55 0.64 0.84 0.95 0.96 0.92 0.77 0.61 0.57 0.80 0.93 0.78
0.18 0.17 0.18 0.19 0.19 0.17 0.15 0.15 0.19 0.26 0.33 0.35 0.30 0.29 0.36 0.37 0.37 0.40 0.29 0.23 0.26 0.23 0.26 0.28 0.38 0.48 0.58 0.69 0.69 0.70 0.69 0.62 0.62 0.68 0.75 0.80 0.82 0.78 0.71 0.73 0.91 1.07 1.09
0.16 0.16 0.16 0.18 0.19 0.19 0.19 0.17 0.15 0.19 0.25 0.31 0.30 0.31 0.33 0.33 0.39 0.41 0.32 0.26 0.30 0.31 0.40 0.39 0.42 0.58 0.64 0.79 0.74 0.71 0.69 0.63 0.51 0.45 0.47 0.53 0.60 0.68 0.74 0.77 0.90 1.02 1.15
0.22 0.21 0.16 0.15 0.16 0.18 0.18 0.18 0.16 0.17 0.20 0.25 0.27 0.37 0.37 0.29 0.36 0.38 0.38 0.43 0.43 0.45 0.51 0.49 0.56 0.77 0.97 0.97 0.94 0.83 0.61 0.55 0.45 0.38 0.33 0.33 0.38 0.46 0.51 0.57 0.65 0.73 0.82
0.23 0.21 0.18 0.15 0.14 0.15 0.17 0.18 0.18 0.20 0.22 0.25 0.31 0.40 0.42 0.39 0.39 0.41 0.45 0.55 0.62 0.53 0.53 0.62 0.72 0.80 0.89 0.87 0.87 0.75 0.55 0.49 0.44 0.37 0.31 0.28 0.27 0.31 0.36 0.38 0.41 0.44 0.49
0.18 0.17 0.16 0.13 0.12 0.13 0.15 0.16 0.18 0.22 0.25 0.31 0.38 0.44 0.50 0.51 0.51 0.51 0.52 0.59 0.73 0.71 0.66 0.66 0.72 0.73 0.72 0.57 0.59 0.58 0.49 0.47 0.40 0.35 0.31 0.27 0.25 0.25 0.27 0.30 0.32 0.34 0.35
0.18 0.15 0.14 0.14 0.12 0.12 0.14 0.16 0.19 0.21 0.24 0.30 0.37 0.42 0.47 0.54 0.61 0.63 0.68 0.69 0.72 0.83 0.77 0.66 0.76 0.84 0.75 0.56 0.46 0.45 0.45 0.41 0.36 0.36 0.34 0.32 0.27 0.24 0.23 0.24 0.26 0.28 0.29
0.15 0.15 0.14 0.13 0.10 0.10 0.13 0.18 0.20 0.21 0.24 0.27 0.34 0.44 0.48 0.50 0.55 0.63 0.75 0.78 0.80 0.92 0.91 0.77 0.85 0.94 0.84 0.71 0.56 0.48 0.38 0.35 0.34 0.37 0.37 0.37 0.34 0.29 0.24 0.21 0.19 0.18 0.19
0.14 0.14 0.14 0.13 0.11 0.09 0.10 0.13 0.17 0.21 0.26 0.28 0.32 0.40 0.48 0.56 0.58 0.63 0.72 0.77 0.84 0.99 1.03 0.96 0.95 1.06 1.09 0.87 0.64 0.47 0.36 0.33 0.31 0.35 0.37 0.38 0.36 0.32 0.26 0.23 0.19 0.14 0.12
0.12 0.14 0.15 0.15 0.14 0.12 0.09 0.09 0.11 0.14 0.19 0.25 0.33 0.37 0.42 0.52 0.61 0.65 0.73 0.84 0.93 1.02 1.10 1.09 1.12 1.23 1.23 1.09 0.83 0.55 0.43 0.35 0.31 0.30 0.32 0.33 0.34 0.31 0.26 0.21 0.19 0.14 0.11
0.11 0.15 0.17 0.17 0.17 0.15 0.09 0.09 0.12 0.12 0.14 0.17 0.24 0.31 0.32 0.37 0.47 0.59 0.67 0.78 0.94 1.09 1.25 1.31 1.33 1.49 1.45 1.24 0.97 0.67 0.54 0.43 0.36 0.30 0.28 0.27 0.27 0.24 0.21 0.19 0.16 0.14 0.10
0.15 0.20 0.21 0.22 0.21 0.14 0.10 0.09 0.10 0.12 0.15 0.17 0.21 0.26 0.27 0.28 0.31 0.38 0.48 0.62 0.77 0.93 1.14 1.32 1.45 1.55 1.59 1.44 1.23 0.99 0.68 0.46 0.38 0.33 0.29 0.29 0.26 0.24 0.19 0.15 0.15 0.12 0.10
0.19 0.24 0.26 0.28 0.27 0.27 0.19 0.13 0.09 0.12 0.15 0.19 0.22 0.24 0.20 0.17 0.24 0.28 0.32 0.40 0.51 0.63 0.79 1.00 1.20 1.30 1.47 1.57 1.41 1.13 0.84 0.62 0.46 0.36 0.30 0.29 0.26 0.26 0.22 0.18 0.18 0.13 0.09
0.24 0.27 0.28 0.31 0.34 0.32 0.24 0.16 0.13 0.14 0.18 0.20 0.23 0.25 0.24 0.22 0.23 0.28 0.32 0.31 0.32 0.37 0.46 0.58 0.76 1.00 1.21 1.41 1.43 1.32 1.20 0.95 0.71 0.51 0.36 0.30 0.25 0.23 0.23 0.19 0.18 0.14 0.09
0.31 0.35 0.38 0.39 0.42 0.41 0.31 0.19 0.15 0.18 0.24 0.24 0.25 0.27 0.30 0.26 0.21 0.21 0.28 0.30 0.29 0.28 0.30 0.39 0.53 0.75 1.00 1.18 1.35 1.33 1.21 1.06 0.84 0.58 0.37 0.26 0.22 0.22 0.23 0.18 0.15 0.15 0.12
0.39 0.41 0.44 0.49 0.53 0.53 0.42 0.24 0.19 0.22 0.29 0.32 0.36 0.37 0.34 0.30 0.26 0.19 0.23 0.27 0.25 0.25 0.27 0.28 0.35 0.49 0.65 0.91 1.11 1.12 1.03 0.94 0.80 0.59 0.36 0.24 0.19 0.18 0.22 0.17 0.11 0.09 0.09

GEFSMA_prec_meanprecacc_060.txt.gz
Total_Precipitation_Accumulation
1.63 1.73 1.46 1.35 1.32 1.53 1.80 1.75 1.60 1.63 1.71 1.72 1.54 1.42 1.23 0.92 0.78 0.73 0.65 0.86 0.93 0.89 0.95 0.98 0.99 0.96 0.88 0.79 0.71 0.70 0.73 0.73 0.64 0.51 0.42 0.31 0.24 0.24 0.17 0.10 0.07 0.05 0.05
1.60 1.48 1.45 1.44 1.36 1.53 1.58 1.66 1.70 1.83 1.87 1.94 1.65 1.49 1.33 1.16 1.02 0.98 0.85 0.99 1.02 0.90 0.87 0.95 0.98 0.98 1.00 0.94 0.85 0.80 0.75 0.74 0.65 0.52 0.46 0.38 0.30 0.27 0.25 0.20 0.19 0.12 0.08
1.53 1.54 1.45 1.34 1.38 1.48 1.55 1.61 1.66 1.73 1.63 1.67 1.57 1.51 1.44 1.30 1.22 1.12 0.98 0.89 0.81 0.86 0.87 0.87 0.89 0.91 0.96 0.98 1.02 0.96 0.79 0.66 0.58 0.46 0.39 0.38 0.36 0.29 0.26 0.25 0.26 0.22 0.17
1.28 1.33 1.22 1.21 1.31 1.23 1.21 1.25 1.24 1.29 1.31 1.43 1.39 1.28 1.25 1.24 1.20 1.16 1.01 0.86 0.78 0.63 0.74 0.88 0.91 0.83 0.92 1.01 1.10 1.14 0.88 0.61 0.47 0.41 0.36 0.32 0.34 0.28 0.20 0.17 0.18 0.23 0.19
0.78 0.82 0.80 0.83 0.90 0.91 0.91 0.88 1.02 1.09 1.14 1.25 1.29 1.11 1.06 1.14 1.14 1.12 1.01 0.82 0.83 0.73 0.61 0.70 0.82 0.76 0.89 1.02 1.14 1.20 1.10 0.83 0.57 0.48 0.44 0.39 0.37 0.29 0.20 0.16 0.15 0.16 0.15
0.61 0.58 0.56 0.58 0.57 0.60 0.66 0.69 0.73 0.83 0.85 0.90 0.92 0.87 0.89 0.84 0.91 0.91 0.81 0.77 0.71 0.59 0.53 0.63 0.79 0.64 0.76 0.91 1.01 1.10 1.18 1.15 0.88 0.65 0.52 0.52 0.54 0.42 0.23 0.18 0.17 0.16 0.14
0.43 0.45 0.41 0.40 0.40 0.39 0.40 0.44 0.51 0.57 0.59 0.68 0.72 0.66 0.62 0.59 0.63 0.61 0.61 0.65 0.59 0.56 0.57 0.60 0.65 0.62 0.54 0.58 0.69 0.81 1.04 1.20 1.12 0.92 0.75 0.63 0.64 0.56 0.33 0.23 0.19 0.19 0.20
0.30 0.30 0.30 0.31 0.31 0.29 0.30 0.33 0.36 0.37 0.40 0.51 0.57 0.58 0.50 0.47 0.45 0.41 0.47 0.44 0.44 0.57 0.59 0.56 0.60 0.69 0.66 0.68 0.56 0.55 0.80 1.04 1.23 1.20 1.05 0.85 0.71 0.58 0.44 0.35 0.26 0.21 0.22
0.22 0.23 0.23 0.24 0.27 0.28 0.29 0.32 0.32 0.32 0.32 0.34 0.44 0.55 0.50 0.41 0.35 0.34 0.37 0.40 0.47 0.54 0.55 0.63 0.61 0.58 0.57 0.67 0.77 0.75 0.76 0.84 1.17 1.41 1.35 1.06 0.76 0.58 0.54 0.51 0.45 0.37 0.29
0.18 0.17 0.17 0.16 0.18 0.23 0.29 0.29 0.34 0.34 0.32 0.26 0.30 0.39 0.43 0.45 0.44 0.37 0.36 0.38 0.48 0.54 0.54 0.54 0.55 0.61 0.71 0.80 0.87 0.88 0.71 0.71 0.95 1.24 1.34 1.20 0.94 0.70 0.60 0.62 0.75 0.72 0.54
0.18 0.18 0.18 0.17 0.15 0.15 0.20 0.23 0.31 0.35 0.36 0.31 0.29 0.32 0.36 0.38 0.41 0.41 0.31 0.31 0.38 0.36 0.40 0.46 0.56 0.61 0.69 0.86 1.04 0.93 0.73 0.64 0.74 0.96 1.10 1.12 1.06 0.87 0.67 0.62 0.84 0.97 0.81
0.18 0.17 0.18 0.19 0.19 0.17 0.15 0.15 0.20 0.27 0.34 0.36 0.32 0.30 0.37 0.38 0.39 0.42 0.31 0.24 0.28 0.25 0.28 0.32 0.43 0.56 0.69 0.82 0.81 0.81 0.81 0.74 0.72 0.78 0.88 0.96 0.99 0.93 0.82 0.81 0.97 1.13 1.15
0.16 0.16 0.16 0.18 0.19 0.20 0.19 0.17 0.16 0.19 0.26 0.32 0.31 0.32 0.34 0.33 0.39 0.41 0.33 0.27 0.30 0.31 0.41 0.40 0.45 0.63 0.69 0.89 0.85 0.83 0.80 0.75 0.62 0.55 0.57 0.65 0.74 0.83 0.88 0.88 0.99 1.11 1.24
0.22 0.21 0.16 0.15 0.17 0.18 0.18 0.18 0.17 0.17 0.21 0.26 0.28 0.38 0.37 0.29 0.36 0.38 0.39 0.44 0.43 0.45 0.52 0.50 0.59 0.82 1.04 1.06 1.05 0.92 0.72 0.66 0.55 0.49 0.42 0.43 0.48 0.57 0.63 0.68 0.75 0.81 0.89
0.23 0.21 0.18 0.15 0.15 0.16 0.17 0.18 0.18 0.20 0.23 0.26 0.31 0.40 0.42 0.39 0.40 0.41 0.45 0.55 0.62 0.53 0.53 0.64 0.76 0.84 0.94 0.95 0.96 0.84 0.67 0.64 0.56 0.48 0.41 0.37 0.37 0.40 0.45 0.47 0.48 0.50 0.53
0.19 0.17 0.16 0.14 0.12 0.13 0.16 0.17 0.18 0.22 0.26 0.32 0.39 0.45 0.51 0.51 0.51 0.51 0.52 0.60 0.73 0.71 0.66 0.67 0.75 0.76 0.76 0.61 0.63 0.64 0.60 0.61 0.53 0.46 0.42 0.38 0.35 0.34 0.36 0.38 0.40 0.40 0.40
0.18 0.16 0.15 0.14 0.13 0.13 0.15 0.18 0.20 0.22 0.25 0.31 0.38 0.44 0.48 0.55 0.62 0.63 0.68 0.70 0.73 0.83 0.78 0.66 0.77 0.86 0.77 0.60 0.50 0.51 0.52 0.53 0.50 0.48 0.44 0.41 0.37 0.34 0.32 0.32 0.34 0.35 0.35
0.15 0.15 0.15 0.13 0.11 0.11 0.14 0.19 0.22 0.22 0.25 0.28 0.36 0.46 0.50 0.51 0.57 0.64 0.76 0.79 0.81 0.93 0.92 0.78 0.85 0.94 0.85 0.74 0.60 0.53 0.44 0.43 0.44 0.47 0.45 0.44 0.42 0.37 0.32 0.29 0.27 0.26 0.25
0.15 0.14 0.15 0.13 0.11 0.10 0.11 0.14 0.19 0.23 0.27 0.29 0.33 0.42 0.50 0.58 0.61 0.65 0.74 0.78 0.85 1.00 1.04 0.96 0.95 1.06 1.09 0.88 0.66 0.51 0.42 0.42 0.39 0.42 0.44 0.44 0.43 0.39 0.34 0.30 0.27 0.22 0.18
0.13 0.14 0.15 0.15 0.14 0.12 0.10 0.10 0.12 0.16 0.21 0.27 0.35 0.39 0.43 0.55 0.64 0.68 0.76 0.87 0.95 1.04 1.12 1.10 1.13 1.24 1.24 1.10 0.84 0.57 0.48 0.45 0.42 0.38 0.40 0.40 0.40 0.38 0.34 0.30 0.27 0.22 0.18
0.11 0.15 0.18 0.18 0.18 0.15 0.10 0.10 0.13 0.13 0.15 0.19 0.26 0.33 0.34 0.39 0.49 0.61 0.68 0.79 0.96 1.11 1.27 1.33 1.34 1.50 1.45 1.25 0.99 0.70 0.58 0.52 0.48 0.44 0.40 0.35 0.33 0.30 0.29 0.28 0.27 0.24 0.19
0.15 0.20 0.22 0.22 0.21 0.15 0.10 0.09 0.10 0.12 0.15 0.18 0.22 0.28 0.29 0.29 0.32 0.38 0.48 0.62 0.77 0.94 1.15 1.33 1.46 1.56 1.61 1.47 1.26 1.02 0.71 0.52 0.48 0.48 0.45 0.42 0.38 0.35 0.31 0.27 0.27 0.25 0.22
0.19 0.25 0.27 0.28 0.28 0.28 0.20 0.13 0.09 0.12 0.15 0.19 0.23 0.26 0.21 0.18 0.26 0.30 0.34 0.42 0.52 0.63 0.79 1.00 1.20 1.31 1.48 1.60 1.46 1.17 0.89 0.68 0.55 0.52 0.49 0.44 0.41 0.41 0.38 0.34 0.35 0.29 0.26
0.24 0.28 0.29 0.31 0.35 0.34 0.24 0.16 0.13 0.14 0.18 0.21 0.24 0.27 0.27 0.25 0.27 0.32 0.37 0.36 0.37 0.40 0.48 0.59 0.76 1.00 1.21 1.42 1.46 1.35 1.25 1.00 0.77 0.63 0.56 0.49 0.40 0.36 0.37 0.36 0.36 0.31 0.28
0.31 0.35 0.38 0.41 0.44 0.43 0.33 0.19 0.15 0.18 0.24 0.25 0.26 0.30 0.34 0.31 0.25 0.22 0.30 0.32 0.32 0.31 0.32 0.40 0.53 0.75 1.00 1.18 1.35 1.34 1.24 1.10 0.89 0.67 0.53 0.46 0.39 0.35 0.33 0.29 0.29 0.31 0.29
0.39 0.42 0.45 0.50 0.55 0.56 0.46 0.25 0.19 0.22 0.30 0.33 0.38 0.40 0.37 0.31 0.27 0.19 0.25 0.30 0.28 0.28 0.31 0.31 0.38 0.51 0.66 0.91 1.11 1.13 1.04 0.96 0.85 0.67 0.48 0.40 0.35 0.32 0.33 0.26 0.21 0.21 0.23

GEFSMA_prec_meanprecacc_066.txt.gz
Total_Precipitation_Accumulation
1.64 1.74 1.46 1.36 1.33 1.54 1.81 1.77 1.62 1.66 1.74 1.77 1.59 1.49 1.30 0.99 0.86 0.81 0.82 1.12 1.17 1.10 1.14 1.14 1.10 1.03 0.92 0.81 0.73 0.71 0.74 0.74 0.65 0.51 0.43 0.32 0.25 0.25 0.17 0.10 0.07 0.05 0.05
1.60 1.48 1.45 1.44 1.37 1.54 1.59 1.67 1.71 1.84 1.87 1.95 1.68 1.54 1.38 1.22 1.09 1.06 0.98 1.19 1.19 1.08 1.06 1.15 1.14 1.09 1.08 1.00 0.89 0.82 0.77 0.76 0.66 0.53 0.46 0.39 0.31 0.28 0.25 0.20 0.19 0.12 0.08
1.53 1.54 1.45 1.34 1.38 1.48 1.55 1.62 1.66 1.74 1.64 1.69 1.59 1.54 1.47 1.34 1.26 1.16 1.06 1.00 0.91 1.00 1.06 1.07 1.09 1.07 1.09 1.09 1.09 1.01 0.82 0.69 0.60 0.46 0.39 0.39 0.36 0.30 0.26 0.25 0.26 0.22 0.17
1.28 1.33 1.22 1.21 1.31 1.23 1.21 1.25 1.24 1.29 1.32 1.44 1.41 1.29 1.26 1.26 1.22 1.18 1.05 0.92 0.86 0.70 0.86 1.08 1.14 1.04 1.10 1.18 1.22 1.23 0.94 0.65 0.50 0.42 0.36 0.32 0.34 0.28 0.21 0.17 0.18 0.23 0.19
0.78 0.82 0.80 0.83 0.90 0.91 0.91 0.88 1.02 1.09 1.14 1.25 1.29 1.11 1.06 1.15 1.15 1.13 1.03 0.85 0.88 0.78 0.67 0.82 1.00 0.95 1.08 1.23 1.35 1.35 1.21 0.90 0.60 0.51 0.46 0.40 0.37 0.29 0.20 0.16 0.16 0.16 0.15
0.61 0.58 0.56 0.58 0.57 0.60 0.66 0.69 0.73 0.83 0.85 0.90 0.92 0.87 0.90 0.84 0.92 0.92 0.82 0.79 0.74 0.63 0.58 0.69 0.90 0.77 0.93 1.10 1.22 1.30 1.33 1.26 0.95 0.69 0.55 0.54 0.55 0.42 0.23 0.18 0.17 0.16 0.14
0.43 0.45 0.41 0.40 0.40 0.39 0.40 0.44 0.51 0.57 0.59 0.68 0.72 0.66 0.62 0.59 0.63 0.62 0.62 0.66 0.61 0.59 0.62 0.66 0.73 0.72 0.66 0.74 0.85 0.98 1.23 1.37 1.26 1.01 0.80 0.66 0.66 0.57 0.33 0.23 0.19 0.19 0.20
0.30 0.30 0.30 0.31 0.31 0.29 0.30 0.33 0.36 0.37 0.40 0.51 0.57 0.58 0.50 0.47 0.46 0.41 0.49 0.46 0.46 0.61 0.64 0.63 0.68 0.76 0.74 0.78 0.64 0.69 1.00 1.25 1.43 1.37 1.17 0.92 0.75 0.60 0.45 0.35 0.26 0.21 0.22
0.22 0.23 0.23 0.24 0.27 0.28 0.29 0.32 0.32 0.33 0.32 0.34 0.44 0.56 0.50 0.41 0.35 0.34 0.37 0.42 0.49 0.56 0.58 0.68 0.68 0.65 0.64 0.74 0.85 0.84 0.89 1.01 1.38 1.62 1.54 1.19 0.85 0.63 0.56 0.52 0.45 0.37 0.29
0.18 0.17 0.17 0.16 0.18 0.23 0.29 0.29 0.34 0.34 0.32 0.26 0.30 0.39 0.44 0.46 0.44 0.37 0.36 0.39 0.49 0.54 0.55 0.56 0.58 0.65 0.75 0.84 0.92 0.94 0.79 0.82 1.10 1.43 1.53 1.38 1.08 0.80 0.66 0.65 0.76 0.73 0.54
0.18 0.18 0.18 0.17 0.15 0.15 0.20 0.23 0.31 0.35 0.36 0.31 0.29 0.33 0.36 0.38 0.41 0.41 0.31 0.31 0.38 0.37 0.41 0.46 0.58 0.62 0.71 0.89 1.07 0.97 0.79 0.72 0.84 1.08 1.24 1.28 1.22 1.01 0.79 0.71 0.91 1.01 0.83
0.18 0.17 0.18 0.19 0.19 0.17 0.15 0.15 0.20 0.27 0.34 0.36 0.32 0.30 0.37 0.39 0.39 0.42 0.31 0.24 0.28 0.25 0.28 0.32 0.43 0.56 0.70 0.83 0.85 0.87 0.87 0.80 0.79 0.87 0.96 1.05 1.12 1.07 0.97 0.96 1.10 1.23 1.22
0.16 0.16 0.16 0.18 0.19 0.20 0.19 0.17 0.16 0.19 0.26 0.32 0.31 0.32 0.34 0.33 0.40 0.41 0.33 0.27 0.30 0.31 0.41 0.40 0.45 0.63 0.69 0.89 0.88 0.89 0.87 0.82 0.69 0.62 0.66 0.73 0.81 0.93 1.02 1.05 1.16 1.26 1.36
0.22 0.21 0.16 0.15 0.17 0.18 0.18 0.18 0.17 0.17 0.21 0.26 0.28 0.38 0.37 0.29 0.36 0.38 0.39 0.44 0.43 0.45 0.52 0.50 0.59 0.83 1.04 1.07 1.06 0.94 0.76 0.72 0.63 0.57 0.49 0.50 0.55 0.65 0.72 0.79 0.89 0.97 1.04
0.23 0.21 0.18 0.15 0.15 0.16 0.17 0.18 0.18 0.20 0.23 0.26 0.31 0.41 0.42 0.39 0.40 0.41 0.45 0.56 0.62 0.53 0.53 0.64 0.76 0.85 0.95 0.96 0.96 0.85 0.68 0.67 0.60 0.53 0.47 0.43 0.42 0.47 0.53 0.55 0.56 0.60 0.64
0.19 0.17 0.16 0.14 0.12 0.13 0.16 0.17 0.18 0.23 0.26 0.32 0.39 0.45 0.51 0.51 0.51 0.51 0.52 0.60 0.73 0.71 0.66 0.67 0.75 0.76 0.76 0.62 0.64 0.64 0.61 0.62 0.55 0.49 0.45 0.42 0.39 0.40 0.41 0.45 0.48 0.48 0.48
0.18 0.16 0.15 0.14 0.13 0.13 0.15 0.18 0.20 0.22 0.25 0.31 0.38 0.44 0.48 0.55 0.62 0.63 0.68 0.70 0.73 0.84 0.78 0.66 0.77 0.86 0.78 0.60 0.51 0.51 0.53 0.53 0.51 0.49 0.46 0.43 0.40 0.38 0.38 0.37 0.41 0.43 0.41
0.15 0.15 0.15 0.13 0.11 0.11 0.14 0.19 0.22 0.22 0.25 0.29 0.36 0.46 0.50 0.51 0.57 0.64 0.76 0.79 0.81 0.93 0.92 0.78 0.85 0.94 0.85 0.74 0.61 0.53 0.44 0.43 0.44 0.48 0.47 0.47 0.45 0.41 0.37 0.35 0.34 0.33 0.33
0.15 0.14 0.15 0.13 0.11 0.10 0.11 0.14 0.19 0.23 0.27 0.29 0.34 0.42 0.50 0.58 0.61 0.65 0.75 0.79 0.85 1.00 1.04 0.96 0.96 1.06 1.09 0.88 0.66 0.51 0.42 0.42 0.39 0.43 0.45 0.47 0.46 0.43 0.38 0.35 0.34 0.30 0.27
0.13 0.14 0.15 0.15 0.14 0.12 0.10 0.10 0.12 0.16 0.21 0.27 0.35 0.39 0.43 0.55 0.64 0.68 0.76 0.88 0.96 1.04 1.12 1.10 1.13 1.24 1.24 1.10 0.84 0.57 0.48 0.45 0.43 0.39 0.42 0.42 0.43 0.41 0.37 0.33 0.31 0.30 0.28
0.11 0.15 0.18 0.18 0.18 0.15 0.10 0.10 0.13 0.13 0.15 0.19 0.26 0.33 0.34 0.39 0.49 0.61 0.69 0.79 0.96 1.12 1.27 1.33 1.34 1.50 1.45 1.25 0.99 0.70 0.58 0.52 0.49 0.46 0.43 0.37 0.35 0.32 0.31 0.30 0.30 0.29 0.28
0.15 0.20 0.22 0.22 0.22 0.15 0.10 0.09 0.10 0.12 0.15 0.18 0.22 0.28 0.29 0.29 0.32 0.38 0.48 0.62 0.77 0.94 1.15 1.33 1.46 1.56 1.61 1.47 1.26 1.02 0.71 0.53 0.48 0.50 0.48 0.46 0.42 0.38 0.33 0.29 0.30 0.28 0.28
0.19 0.25 0.27 0.28 0.28 0.28 0.20 0.13 0.09 0.12 0.15 0.19 0.23 0.26 0.21 0.18 0.26 0.30 0.35 0.42 0.52 0.64 0.79 1.00 1.20 1.31 1.49 1.60 1.46 1.17 0.89 0.69 0.55 0.53 0.51 0.48 0.47 0.45 0.41 0.37 0.39 0.33 0.29
0.24 0.28 0.29 0.31 0.35 0.34 0.25 0.16 0.13 0.14 0.18 0.21 0.24 0.27 0.27 0.25 0.27 0.32 0.37 0.36 0.37 0.40 0.48 0.59 0.76 1.00 1.21 1.42 1.46 1.35 1.25 1.00 0.77 0.63 0.57 0.50 0.44 0.42 0.43 0.41 0.40 0.36 0.33
0.31 0.35 0.38 0.41 0.44 0.43 0.33 0.19 0.15 0.18 0.24 0.25 0.26 0.30 0.34 0.31 0.26 0.22 0.30 0.33 0.32 0.31 0.32 0.40 0.53 0.75 1.00 1.18 1.35 1.34 1.24 1.10 0.89 0.67 0.54 0.48 0.41 0.39 0.39 0.36 0.36 0.37 0.34
0.39 0.42 0.45 0.50 0.55 0.56 0.46 0.25 0.19 0.22 0.30 0.33 0.38 0.40 0.37 0.31 0.27 0.19 0.25 0.30 0.29 0.28 0.31 0.32 0.38 0.51 0.66 0.91 1.11 1.13 1.04 0.96 0.85 0.67 0.50 0.43 0.38 0.37 0.39 0.31 0.26 0.27 0.28

GEFSMA_prec_meanprecacc_072.txt.gz
Total_Precipitation_Accumulation
1.65 1.74 1.47 1.37 1.35 1.56 1.83 1.78 1.63 1.67 1.76 1.79 1.63 1.53 1.33 1.01 0.88 0.84 0.86 1.17 1.23 1.19 1.29 1.30 1.24 1.17 1.05 0.91 0.82 0.77 0.77 0.76 0.67 0.53 0.44 0.33 0.26 0.25 0.17 0.10 0.07 0.05 0.05
1.60 1.48 1.46 1.45 1.38 1.55 1.60 1.67 1.71 1.85 1.88 1.96 1.69 1.56 1.41 1.24 1.11 1.09 1.02 1.23 1.26 1.15 1.19 1.31 1.30 1.28 1.27 1.16 1.00 0.92 0.84 0.80 0.69 0.55 0.47 0.40 0.32 0.29 0.25 0.21 0.19 0.12 0.08
1.53 1.54 1.45 1.34 1.39 1.49 1.56 1.62 1.67 1.75 1.64 1.70 1.60 1.55 1.48 1.35 1.28 1.18 1.08 1.03 0.95 1.06 1.17 1.22 1.26 1.25 1.30 1.29 1.25 1.14 0.95 0.79 0.67 0.51 0.42 0.40 0.37 0.31 0.27 0.26 0.26 0.22 0.17
1.28 1.33 1.22 1.21 1.32 1.23 1.22 1.25 1.25 1.30 1.32 1.45 1.41 1.30 1.27 1.27 1.23 1.19 1.06 0.93 0.88 0.74 0.95 1.23 1.32 1.21 1.30 1.39 1.44 1.42 1.10 0.79 0.61 0.50 0.41 0.36 0.36 0.29 0.21 0.18 0.19 0.23 0.19
0.78 0.82 0.80 0.83 0.90 0.91 0.91 0.88 1.02 1.10 1.15 1.25 1.29 1.12 1.07 1.16 1.16 1.13 1.03 0.86 0.89 0.80 0.71 0.90 1.15 1.11 1.29 1.48 1.62 1.61 1.41 1.07 0.75 0.64 0.54 0.45 0.41 0.31 0.21 0.17 0.16 0.16 0.15
0.61 0.58 0.56 0.58 0.57 0.60 0.66 0.69 0.73 0.83 0.85 0.90 0.92 0.87 0.90 0.85 0.93 0.92 0.83 0.80 0.75 0.65 0.61 0.74 0.97 0.87 1.11 1.34 1.49 1.56 1.57 1.46 1.12 0.85 0.68 0.63 0.61 0.45 0.25 0.19 0.18 0.16 0.14
0.43 0.45 0.41 0.40 0.40 0.39 0.40 0.44 0.51 0.57 0.59 0.68 0.72 0.66 0.62 0.59 0.63 0.62 0.63 0.67 0.62 0.60 0.63 0.69 0.77 0.78 0.75 0.89 1.04 1.22 1.50 1.61 1.46 1.19 0.96 0.80 0.77 0.64 0.38 0.26 0.20 0.20 0.21
0.30 0.30 0.30 0.31 0.31 0.29 0.30 0.33 0.36 0.37 0.40 0.51 0.57 0.58 0.50 0.47 0.46 0.41 0.49 0.46 0.46 0.61 0.64 0.64 0.69 0.79 0.77 0.85 0.74 0.85 1.22 1.51 1.71 1.61 1.38 1.09 0.89 0.70 0.52 0.40 0.29 0.23 0.23
0.22 0.23 0.23 0.24 0.27 0.28 0.29 0.32 0.32 0.33 0.32 0.34 0.44 0.56 0.50 0.41 0.35 0.34 0.37 0.42 0.49 0.56 0.58 0.68 0.68 0.67 0.67 0.77 0.90 0.92 1.02 1.16 1.59 1.88 1.78 1.40 1.02 0.75 0.65 0.59 0.50 0.40 0.31
0.18 0.17 0.17 0.16 0.18 0.23 0.29 0.29 0.34 0.34 0.32 0.26 0.30 0.39 0.44 0.46 0.44 0.37 0.36 0.39 0.49 0.54 0.55 0.56 0.58 0.66 0.77 0.87 0.95 0.99 0.86 0.91 1.23 1.61 1.78 1.63 1.30 0.98 0.79 0.75 0.84 0.78 0.57
0.18 0.18 0.18 0.17 0.15 0.15 0.20 0.23 0.31 0.35 0.36 0.31 0.29 0.33 0.36 0.38 0.41 0.41 0.31 0.31 0.38 0.37 0.41 0.46 0.58 0.63 0.71 0.90 1.09 0.99 0.82 0.76 0.90 1.17 1.38 1.47 1.44 1.21 0.97 0.87 1.04 1.12 0.91
0.18 0.17 0.18 0.19 0.19 0.17 0.15 0.15 0.20 0.27 0.34 0.36 0.32 0.30 0.37 0.39 0.39 0.42 0.31 0.24 0.28 0.25 0.28 0.32 0.43 0.56 0.70 0.84 0.87 0.88 0.89 0.83 0.83 0.91 1.03 1.16 1.26 1.24 1.15 1.14 1.29 1.42 1.37
0.16 0.16 0.16 0.18 0.19 0.20 0.19 0.17 0.16 0.19 0.26 0.32 0.31 0.32 0.34 0.33 0.40 0.41 0.33 0.27 0.30 0.31 0.41 0.40 0.45 0.63 0.69 0.90 0.88 0.90 0.89 0.84 0.72 0.66 0.70 0.79 0.90 1.03 1.15 1.18 1.32 1.45 1.55
0.22 0.21 0.16 0.15 0.17 0.18 0.18 0.18 0.17 0.17 0.21 0.26 0.28 0.38 0.37 0.29 0.36 0.38 0.39 0.44 0.43 0.45 0.52 0.50 0.59 0.83 1.04 1.07 1.06 0.94 0.76 0.74 0.64 0.59 0.53 0.55 0.61 0.72 0.80 0.90 1.02 1.11 1.20
0.23 0.21 0.18 0.15 0.15 0.16 0.17 0.18 0.18 0.20 0.23 0.26 0.31 0.41 0.42 0.39 0.40 0.41 0.45 0.56 0.62 0.54 0.53 0.64 0.76 0.85 0.95 0.96 0.96 0.85 0.68 0.67 0.61 0.55 0.50 0.46 0.47 0.52 0.59 0.62 0.65 0.71 0.76
0.19 0.17 0.16 0.14 0.12 0.13 0.16 0.17 0.18 0.23 0.26 0.32 0.39 0.45 0.51 0.51 0.51 0.51 0.52 0.60 0.73 0.71 0.66 0.67 0.75 0.76 0.76 0.62 0.64 0.64 0.61 0.63 0.55 0.50 0.48 0.45 0.42 0.43 0.45 0.50 0.53 0.54 0.56
0.18 0.16 0.15 0.14 0.13 0.13 0.15 0.18 0.20 0.22 0.25 0.31 0.38 0.44 0.48 0.55 0.62 0.63 0.68 0.70 0.73 0.84 0.78 0.66 0.77 0.86 0.78 0.60 0.51 0.51 0.53 0.53 0.51 0.50 0.47 0.46 0.44 0.43 0.42 0.41 0.45 0.48 0.46
0.15 0.15 0.15 0.13 0.11 0.11 0.14 0.19 0.22 0.22 0.25 0.29 0.36 0.46 0.50 0.51 0.57 0.64 0.76 0.79 0.81 0.93 0.92 0.78 0.85 0.94 0.85 0.74 0.61 0.53 0.44 0.43 0.44 0.48 0.47 0.48 0.47 0.44 0.42 0.40 0.37 0.36 0.36
0.15 0.14 0.15 0.13 0.11 0.10 0.11 0.14 0.19 0.23 0.27 0.29 0.34 0.42 0.50 0.58 0.61 0.65 0.75 0.79 0.85 1.00 1.04 0.96 0.96 1.06 1.09 0.88 0.66 0.51 0.42 0.42 0.39 0.43 0.45 0.47 0.47 0.44 0.40 0.39 0.39 0.34 0.29
0.13 0.14 0.15 0.15 0.14 0.12 0.10 0.10 0.12 0.16 0.21 0.27 0.35 0.39 0.43 0.55 0.64 0.68 0.76 0.88 0.96 1.04 1.12 1.10 1.13 1.24 1.24 1.10 0.84 0.57 0.48 0.45 0.43 0.39 0.42 0.42 0.43 0.41 0.38 0.34 0.33 0.33 0.32
0.11 0.15 0.18 0.18 0.18 0.15 0.10 0.10 0.13 0.13 0.15 0.19 0.26 0.33 0.34 0.39 0.49 0.61 0.69 0.79 0.96 1.12 1.27 1.33 1.34 1.50 1.45 1.25 0.99 0.70 0.58 0.52 0.49 0.46 0.43 0.37 0.35 0.32 0.31 0.30 0.30 0.30 0.29
0.15 0.20 0.22 0.22 0.22 0.15 0.10 0.09 0.10 0.12 0.15 0.18 0.22 0.28 0.29 0.29 0.32 0.38 0.48 0.62 0.77 0.94 1.15 1.33 1.46 1.56 1.61 1.47 1.26 1.02 0.71 0.53 0.48 0.50 0.48 0.46 0.42 0.38 0.33 0.30 0.31 0.29 0.29
0.19 0.25 0.27 0.28 0.28 0.28 0.20 0.13 0.09 0.12 0.15 0.19 0.23 0.26 0.21 0.18 0.26 0.30 0.35 0.42 0.52 0.64 0.79 1.00 1.20 1.31 1.49 1.60 1.46 1.17 0.89 0.69 0.55 0.53 0.51 0.48 0.47 0.45 0.42 0.38 0.40 0.34 0.30
0.24 0.28 0.29 0.31 0.35 0.34 0.25 0.16 0.13 0.14 0.18 0.21 0.24 0.27 0.27 0.25 0.27 0.32 0.37 0.36 0.37 0.40 0.48 0.59 0.76 1.00 1.21 1.42 1.46 1.35 1.25 1.00 0.77 0.63 0.57 0.50 0.44 0.42 0.43 0.41 0.41 0.37 0.34
0.31 0.35 0.38 0.41 0.44 0.44 0.33 0.19 0.15 0.18 0.24 0.25 0.27 0.30 0.34 0.31 0.26 0.22 0.31 0.33 0.32 0.31 0.32 0.40 0.53 0.75 1.00 1.18 1.35 1.34 1.24 1.10 0.89 0.67 0.54 0.48 0.41 0.39 0.39 0.36 0.36 0.37 0.35
0.40 0.43 0.46 0.51 0.56 0.57 0.47 0.27 0.20 0.23 0.30 0.33 0.38 0.40 0.37 0.31 0.27 0.19 0.25 0.30 0.29 0.28 0.31 0.32 0.38 0.51 0.66 0.91 1.11 1.13 1.04 0.96 0.85 0.67 0.50 0.43 0.38 0.37 0.39 0.31 0.26 0.27 0.29

GEFSMA_prec_meanprecacc_078.txt.gz
Total_Precipitation_Accumulation
1.67 1.76 1.50 1.41 1.39 1.59 1.85 1.80 1.67 1.72 1.83 1.85 1.67 1.56 1.37 1.04 0.91 0.88 0.90 1.20 1.27 1.27 1.42 1.45 1.40 1.31 1.18 1.03 0.94 0.86 0.84 0.81 0.70 0.55 0.47 0.36 0.27 0.26 0.17 0.11 0.07 0.05 0.05
1.61 1.49 1.48 1.48 1.41 1.58 1.62 1.69 1.73 1.88 1.92 2.02 1.74 1.60 1.45 1.28 1.15 1.12 1.05 1.27 1.29 1.20 1.28 1.45 1.48 1.47 1.46 1.30 1.13 1.05 0.94 0.88 0.75 0.58 0.50 0.42 0.34 0.30 0.26 0.21 0.19 0.12 0.08
1.53 1.55 1.46 1.35 1.41 1.51 1.58 1.65 1.69 1.76 1.66 1.72 1.63 1.59 1.52 1.39 1.31 1.22 1.12 1.07 0.98 1.10 1.23 1.34 1.42 1.43 1.50 1.45 1.38 1.29 1.09 0.91 0.76 0.59 0.46 0.43 0.40 0.33 0.28 0.26 0.27 0.23 0.17
1.28 1.33 1.23 1.22 1.32 1.24 1.23 1.27 1.26 1.31 1.33 1.45 1.42 1.31 1.28 1.29 1.26 1.23 1.10 0.98 0.93 0.78 1.01 1.32 1.44 1.34 1.44 1.56 1.61 1.59 1.28 0.94 0.74 0.62 0.50 0.42 0.41 0.32 0.23 0.19 0.19 0.24 0.19
0.78 0.83 0.80 0.83 0.91 0.91 0.91 0.89 1.03 1.11 1.16 1.26 1.30 1.13 1.08 1.17 1.18 1.16 1.07 0.89 0.93 0.84 0.77 0.97 1.22 1.21 1.41 1.64 1.80 1.83 1.62 1.22 0.87 0.76 0.65 0.54 0.49 0.38 0.26 0.21 0.18 0.17 0.15
0.61 0.58 0.57 0.58 0.57 0.60 0.66 0.70 0.73 0.84 0.86 0.91 0.93 0.88 0.91 0.86 0.94 0.94 0.85 0.82 0.77 0.67 0.64 0.79 1.04 0.95 1.21 1.48 1.66 1.75 1.78 1.65 1.28 1.00 0.83 0.75 0.71 0.53 0.31 0.23 0.21 0.19 0.15
0.43 0.45 0.41 0.40 0.40 0.39 0.40 0.44 0.51 0.57 0.59 0.68 0.72 0.67 0.62 0.59 0.64 0.63 0.64 0.69 0.64 0.62 0.66 0.73 0.83 0.86 0.85 0.99 1.15 1.36 1.68 1.83 1.66 1.35 1.11 0.94 0.89 0.75 0.45 0.31 0.24 0.22 0.23
0.30 0.30 0.30 0.31 0.31 0.29 0.30 0.33 0.36 0.37 0.40 0.51 0.58 0.58 0.51 0.47 0.46 0.41 0.49 0.47 0.47 0.63 0.66 0.66 0.72 0.85 0.86 0.97 0.83 0.92 1.34 1.67 1.90 1.79 1.53 1.23 1.02 0.83 0.62 0.47 0.33 0.26 0.25
0.22 0.23 0.23 0.24 0.27 0.28 0.29 0.32 0.32 0.33 0.32 0.34 0.44 0.56 0.51 0.41 0.35 0.34 0.37 0.42 0.49 0.56 0.59 0.69 0.69 0.69 0.70 0.83 0.97 0.99 1.09 1.26 1.74 2.06 1.96 1.54 1.14 0.88 0.77 0.69 0.58 0.44 0.34
0.18 0.17 0.17 0.16 0.18 0.23 0.29 0.29 0.34 0.34 0.32 0.26 0.30 0.39 0.44 0.46 0.45 0.38 0.36 0.39 0.49 0.54 0.56 0.57 0.59 0.67 0.78 0.89 0.98 1.02 0.89 0.95 1.30 1.73 1.95 1.80 1.43 1.09 0.90 0.87 0.96 0.88 0.63
0.18 0.18 0.18 0.17 0.15 0.15 0.20 0.23 0.31 0.35 0.36 0.31 0.29 0.33 0.36 0.38 0.41 0.41 0.31 0.31 0.38 0.37 0.41 0.46 0.58 0.63 0.72 0.91 1.11 1.00 0.83 0.77 0.93 1.24 1.49 1.61 1.58 1.33 1.07 0.97 1.17 1.26 1.03
0.18 0.17 0.18 0.19 0.19 0.17 0.15 0.15 0.20 0.27 0.34 0.36 0.32 0.30 0.37 0.39 0.39 0.42 0.31 0.24 0.28 0.25 0.28 0.32 0.44 0.57 0.70 0.86 0.88 0.89 0.90 0.84 0.85 0.94 1.07 1.23 1.36 1.36 1.26 1.24 1.39 1.53 1.50
0.16 0.16 0.16 0.18 0.19 0.20 0.19 0.17 0.16 0.19 0.26 0.32 0.31 0.32 0.34 0.33 0.40 0.41 0.33 0.27 0.30 0.31 0.41 0.40 0.45 0.63 0.70 0.90 0.89 0.90 0.89 0.85 0.73 0.68 0.72 0.81 0.93 1.09 1.23 1.28 1.42 1.56 1.67
0.22 0.21 0.16 0.15 0.17 0.18 0.18 0.18 0.17 0.17 0.21 0.26 0.28 0.38 0.37 0.29 0.36 0.38 0.39 0.44 0.43 0.45 0.52 0.50 0.59 0.83 1.04 1.07 1.06 0.94 0.77 0.74 0.65 0.60 0.54 0.57 0.63 0.74 0.84 0.94 1.08 1.18 1.28
0.23 0.21 0.18 0.15 0.15 0.16 0.17 0.18 0.18 0.20 0.23 0.26 0.31 0.41 0.42 0.39 0.40 0.41 0.45 0.56 0.62 0.54 0.53 0.64 0.76 0.85 0.95 0.96 0.96 0.85 0.68 0.67 0.61 0.55 0.50 0.47 0.48 0.52 0.59 0.63 0.67 0.74 0.81
0.19 0.17 0.16 0.14 0.12 0.13 0.16 0.17 0.18 0.23 0.26 0.32 0.39 0.45 0.51 0.51 0.51 0.51 0.52 0.60 0.73 0.71 0.66 0.67 0.75 0.76 0.76 0.62 0.64 0.64 0.61 0.63 0.55 0.50 0.48 0.45 0.42 0.43 0.46 0.50 0.54 0.56 0.58
0.18 0.16 0.15 0.14 0.13 0.13 0.15 0.18 0.20 0.22 0.25 0.31 0.38 0.44 0.48 0.55 0.62 0.63 0.68 0.70 0.73 0.84 0.78 0.66 0.77 0.86 0.78 0.60 0.51 0.51 0.53 0.53 0.51 0.50 0.47 0.46 0.44 0.43 0.42 0.41 0.45 0.48 0.48
0.15 0.15 0.15 0.13 0.11 0.11 0.14 0.19 0.22 0.22 0.25 0.29 0.36 0.46 0.50 0.51 0.57 0.65 0.76 0.79 0.81 0.93 0.92 0.78 0.85 0.94 0.85 0.74 0.61 0.53 0.44 0.43 0.44 0.48 0.47 0.48 0.47 0.44 0.42 0.40 0.38 0.37 0.37
0.15 0.14 0.15 0.13 0.11 0.10 0.11 0.14 0.19 0.23 0.27 0.29 0.34 0.42 0.50 0.58 0.61 0.65 0.75 0.79 0.85 1.00 1.04 0.96 0.96 1.06 1.09 0.88 0.66 0.51 0.42 0.42 0.39 0.43 0.45 0.47 0.47 0.44 0.40 0.39 0.40 0.36 0.32
0.13 0.14 0.15 0.15 0.14 0.12 0.10 0.10 0.12 0.16 0.21 0.27 0.35 0.39 0.43 0.55 0.64 0.69 0.76 0.88 0.96 1.04 1.12 1.10 1.13 1.24 1.24 1.10 0.84 0.57 0.48 0.45 0.43 0.39 0.42 0.42 0.43 0.41 0.38 0.34 0.33 0.33 0.33
0.11 0.15 0.18 0.18 0.18 0.15 0.10 0.10 0.13 0.13 0.15 0.19 0.26 0.33 0.34 0.39 0.49 0.61 0.69 0.79 0.96 1.12 1.27 1.33 1.34 1.50 1.45 1.25 0.99 0.70 0.58 0.52 0.49 0.46 0.43 0.37 0.35 0.33 0.31 0.31 0.30 0.30 0.29
0.15 0.20 0.22 0.22 0.22 0.15 0.10 0.09 0.10 0.12 0.15 0.18 0.22 0.28 0.29 0.29 0.32 0.38 0.48 0.62 0.77 0.94 1.15 1.34 1.46 1.56 1.62 1.47 1.26 1.02 0.71 0.53 0.48 0.50 0.48 0.46 0.42 0.38 0.34 0.30 0.31 0.29 0.29
0.19 0.25 0.27 0.28 0.28 0.28 0.20 0.13 0.09 0.12 0.15 0.19 0.23 0.26 0.21 0.18 0.26 0.30 0.35 0.42 0.52 0.64 0.79 1.01 1.20 1.31 1.49 1.60 1.46 1.17 0.89 0.69 0.55 0.53 0.52 0.48 0.47 0.45 0.42 0.38 0.40 0.34 0.30
0.25 0.28 0.29 0.32 0.35 0.34 0.25 0.16 0.13 0.14 0.18 0.21 0.24 0.27 0.27 0.25 0.27 0.33 0.37 0.37 0.37 0.40 0.48 0.59 0.76 1.00 1.21 1.42 1.47 1.36 1.26 1.01 0.78 0.63 0.57 0.50 0.44 0.42 0.43 0.41 0.41 0.37 0.34
0.32 0.36 0.39 0.41 0.44 0.44 0.33 0.20 0.15 0.18 0.24 0.25 0.27 0.31 0.35 0.32 0.26 0.23 0.31 0.33 0.32 0.32 0.32 0.40 0.53 0.75 1.00 1.18 1.35 1.34 1.24 1.10 0.90 0.67 0.55 0.48 0.41 0.39 0.39 0.36 0.36 0.37 0.35
0.41 0.44 0.47 0.52 0.57 0.57 0.48 0.28 0.21 0.24 0.30 0.33 0.39 0.41 0.38 0.32 0.28 0.20 0.26 0.31 0.29 0.29 0.32 0.33 0.39 0.51 0.66 0.91 1.11 1.13 1.04 0.97 0.86 0.67 0.50 0.44 0.38 0.38 0.40 0.31 0.26 0.27 0.29

GEFSMA_prec_meanprecacc_084.txt.gz
Total_Precipitation_Accumulation
1.72 1.81 1.54 1.46 1.43 1.63 1.88 1.84 1.71 1.77 1.87 1.89 1.71 1.61 1.40 1.07 0.94 0.93 1.03 1.31 1.31 1.30 1.47 1.51 1.47 1.40 1.26 1.10 1.01 0.91 0.88 0.85 0.74 0.59 0.51 0.39 0.30 0.27 0.18 0.11 0.08 0.07 0.06
1.65 1.54 1.53 1.53 1.44 1.60 1.65 1.72 1.76 1.91 1.96 2.05 1.77 1.64 1.49 1.32 1.20 1.17 1.13 1.36 1.34 1.23 1.32 1.51 1.55 1.55 1.56 1.39 1.21 1.13 1.01 0.94 0.81 0.63 0.54 0.47 0.38 0.33 0.27 0.22 0.20 0.14 0.09
1.55 1.57 1.50 1.39 1.43 1.53 1.61 1.68 1.71 1.78 1.68 1.74 1.65 1.61 1.55 1.42 1.35 1.26 1.18 1.15 1.05 1.15 1.27 1.39 1.48 1.49 1.58 1.55 1.49 1.39 1.18 0.99 0.85 0.67 0.53 0.48 0.44 0.36 0.30 0.28 0.28 0.23 0.17
1.29 1.34 1.24 1.23 1.33 1.26 1.25 1.29 1.28 1.32 1.34 1.46 1.44 1.32 1.30 1.31 1.28 1.27 1.16 1.03 0.99 0.84 1.08 1.38 1.49 1.38 1.50 1.63 1.72 1.73 1.40 1.05 0.83 0.70 0.57 0.48 0.46 0.36 0.27 0.21 0.21 0.25 0.20
0.79 0.84 0.80 0.84 0.91 0.92 0.92 0.89 1.04 1.12 1.16 1.27 1.31 1.13 1.08 1.17 1.18 1.18 1.10 0.92 0.97 0.88 0.85 1.05 1.27 1.25 1.45 1.71 1.92 1.96 1.74 1.34 0.98 0.85 0.73 0.62 0.56 0.43 0.30 0.23 0.20 0.18 0.16
0.62 0.59 0.57 0.58 0.57 0.60 0.66 0.70 0.74 0.84 0.86 0.92 0.93 0.89 0.91 0.86 0.94 0.95 0.87 0.85 0.80 0.69 0.69 0.86 1.12 1.01 1.26 1.56 1.76 1.86 1.90 1.76 1.40 1.11 0.94 0.86 0.81 0.61 0.37 0.27 0.23 0.20 0.16
0.44 0.45 0.41 0.41 0.40 0.39 0.40 0.44 0.52 0.57 0.60 0.69 0.73 0.68 0.63 0.60 0.64 0.63 0.65 0.71 0.67 0.66 0.70 0.77 0.91 0.95 0.93 1.06 1.21 1.45 1.81 1.96 1.79 1.47 1.22 1.04 0.98 0.83 0.52 0.36 0.28 0.25 0.25
0.30 0.30 0.30 0.31 0.31 0.29 0.30 0.33 0.36 0.37 0.40 0.51 0.58 0.60 0.52 0.49 0.47 0.42 0.50 0.48 0.50 0.66 0.70 0.68 0.76 0.91 0.92 1.05 0.89 1.00 1.45 1.80 2.04 1.91 1.63 1.32 1.10 0.91 0.70 0.53 0.38 0.30 0.28
0.22 0.23 0.23 0.24 0.27 0.28 0.29 0.33 0.32 0.33 0.32 0.34 0.44 0.56 0.52 0.43 0.37 0.35 0.38 0.42 0.50 0.59 0.61 0.72 0.73 0.73 0.75 0.90 1.06 1.07 1.16 1.33 1.83 2.17 2.06 1.63 1.22 0.95 0.83 0.76 0.64 0.50 0.39
0.18 0.17 0.17 0.16 0.18 0.23 0.29 0.29 0.34 0.34 0.32 0.26 0.30 0.39 0.44 0.46 0.45 0.39 0.37 0.39 0.49 0.55 0.57 0.59 0.61 0.70 0.82 0.94 1.04 1.07 0.92 0.98 1.35 1.81 2.05 1.91 1.50 1.14 0.95 0.92 1.02 0.94 0.69
0.18 0.18 0.18 0.17 0.15 0.15 0.20 0.23 0.31 0.35 0.36 0.31 0.29 0.33 0.36 0.38 0.41 0.41 0.32 0.31 0.38 0.37 0.41 0.47 0.59 0.65 0.75 0.95 1.15 1.03 0.84 0.78 0.94 1.27 1.55 1.69 1.63 1.37 1.11 1.01 1.23 1.34 1.12
0.18 0.17 0.18 0.19 0.19 0.18 0.15 0.15 0.20 0.27 0.34 0.36 0.32 0.30 0.37 0.39 0.39 0.42 0.31 0.24 0.28 0.25 0.28 0.32 0.44 0.57 0.72 0.88 0.90 0.90 0.91 0.85 0.85 0.94 1.08 1.25 1.41 1.40 1.30 1.30 1.45 1.61 1.60
0.16 0.16 0.16 0.18 0.19 0.20 0.19 0.17 0.16 0.19 0.26 0.32 0.31 0.32 0.34 0.33 0.40 0.41 0.33 0.27 0.30 0.31 0.41 0.40 0.45 0.63 0.70 0.91 0.89 0.90 0.90 0.86 0.75 0.69 0.74 0.83 0.94 1.12 1.27 1.34 1.48 1.63 1.76
0.22 0.21 0.16 0.15 0.17 0.18 0.18 0.18 0.17 0.17 0.21 0.26 0.28 0.38 0.37 0.29 0.36 0.38 0.39 0.44 0.43 0.45 0.52 0.50 0.59 0.83 1.04 1.07 1.06 0.94 0.77 0.74 0.65 0.60 0.55 0.58 0.64 0.75 0.85 0.97 1.11 1.23 1.33
0.23 0.21 0.18 0.15 0.15 0.16 0.17 0.18 0.18 0.20 0.23 0.26 0.32 0.41 0.42 0.39 0.40 0.41 0.45 0.56 0.62 0.54 0.54 0.64 0.76 0.85 0.95 0.96 0.96 0.85 0.68 0.68 0.61 0.55 0.50 0.47 0.48 0.53 0.60 0.64 0.68 0.76 0.83
0.19 0.17 0.16 0.14 0.12 0.13 0.16 0.17 0.19 0.23 0.26 0.32 0.39 0.45 0.51 0.51 0.51 0.51 0.52 0.60 0.73 0.71 0.66 0.67 0.75 0.76 0.76 0.62 0.64 0.64 0.61 0.63 0.55 0.50 0.48 0.45 0.42 0.43 0.46 0.51 0.54 0.56 0.59
0.18 0.16 0.15 0.14 0.13 0.13 0.15 0.18 0.20 0.22 0.25 0.32 0.38 0.44 0.48 0.55 0.62 0.63 0.68 0.70 0.73 0.84 0.78 0.66 0.77 0.86 0.78 0.60 0.51 0.51 0.53 0.53 0.51 0.50 0.47 0.46 0.44 0.43 0.42 0.41 0.45 0.48 0.48
0.15 0.15 0.15 0.13 0.11 0.11 0.14 0.19 0.22 0.22 0.25 0.29 0.36 0.46 0.50 0.52 0.58 0.65 0.76 0.79 0.81 0.93 0.93 0.78 0.85 0.94 0.86 0.74 0.61 0.53 0.44 0.43 0.44 0.48 0.47 0.48 0.47 0.44 0.42 0.40 0.38 0.37 0.37
0.15 0.15 0.15 0.13 0.11 0.10 0.11 0.14 0.19 0.23 0.27 0.29 0.34 0.42 0.50 0.58 0.61 0.65 0.75 0.79 0.85 1.00 1.05 0.96 0.96 1.06 1.09 0.88 0.66 0.51 0.42 0.42 0.39 0.43 0.45 0.47 0.47 0.44 0.40 0.39 0.40 0.36 0.32
0.13 0.15 0.16 0.15 0.15 0.13 0.10 0.10 0.12 0.16 0.21 0.27 0.35 0.39 0.43 0.55 0.64 0.69 0.76 0.88 0.96 1.04 1.12 1.10 1.13 1.24 1.24 1.10 0.85 0.57 0.48 0.45 0.43 0.39 0.42 0.42 0.43 0.41 0.38 0.34 0.33 0.33 0.33
0.12 0.16 0.18 0.19 0.18 0.16 0.10 0.10 0.13 0.13 0.16 0.19 0.26 0.33 0.34 0.40 0.49 0.61 0.69 0.80 0.97 1.12 1.28 1.33 1.34 1.50 1.46 1.26 0.99 0.70 0.58 0.52 0.49 0.46 0.43 0.37 0.35 0.33 0.31 0.31 0.30 0.30 0.29
0.18 0.23 0.23 0.23 0.23 0.16 0.11 0.09 0.10 0.12 0.15 0.18 0.23 0.29 0.30 0.30 0.33 0.38 0.49 0.63 0.78 0.95 1.16 1.34 1.47 1.56 1.62 1.48 1.27 1.02 0.71 0.53 0.49 0.50 0.48 0.46 0.42 0.38 0.34 0.30 0.31 0.29 0.29
0.23 0.27 0.29 0.30 0.29 0.29 0.21 0.13 0.10 0.12 0.16 0.20 0.23 0.27 0.22 0.18 0.26 0.31 0.36 0.43 0.53 0.64 0.80 1.01 1.21 1.31 1.49 1.60 1.47 1.18 0.90 0.70 0.56 0.53 0.52 0.48 0.47 0.45 0.42 0.38 0.40 0.34 0.30
0.29 0.31 0.31 0.33 0.37 0.36 0.26 0.17 0.14 0.15 0.18 0.21 0.25 0.28 0.28 0.26 0.28 0.34 0.40 0.39 0.39 0.42 0.49 0.60 0.77 1.00 1.21 1.43 1.48 1.37 1.27 1.02 0.79 0.63 0.58 0.50 0.44 0.42 0.43 0.41 0.41 0.37 0.34
0.38 0.42 0.44 0.45 0.47 0.46 0.35 0.21 0.17 0.20 0.25 0.25 0.27 0.32 0.36 0.33 0.28 0.25 0.33 0.35 0.35 0.34 0.34 0.42 0.55 0.76 1.01 1.19 1.36 1.35 1.25 1.11 0.90 0.67 0.55 0.48 0.41 0.39 0.39 0.36 0.36 0.37 0.35
0.46 0.49 0.52 0.58 0.62 0.62 0.51 0.31 0.24 0.26 0.32 0.35 0.40 0.43 0.40 0.33 0.30 0.23 0.28 0.34 0.32 0.31 0.36 0.37 0.43 0.54 0.67 0.92 1.12 1.13 1.05 0.97 0.86 0.67 0.50 0.44 0.39 0.38 0.40 0.31 0.26 0.27 0.29

GEFSMA_prec_meanprecacc_090.txt.gz
Total_Precipitation_Accumulation
1.75 1.83 1.55 1.47 1.44 1.64 1.89 1.85 1.73 1.78 1.88 1.90 1.73 1.64 1.46 1.15 1.01 1.00 1.10 1.40 1.40 1.38 1.55 1.58 1.52 1.43 1.29 1.13 1.03 0.94 0.90 0.86 0.75 0.60 0.52 0.41 0.31 0.28 0.18 0.12 0.09 0.07 0.06
1.66 1.54 1.53 1.53 1.45 1.60 1.65 1.73 1.77 1.92 1.96 2.06 1.78 1.66 1.52 1.38 1.26 1.21 1.16 1.40 1.39 1.29 1.38 1.58 1.62 1.62 1.61 1.43 1.24 1.15 1.03 0.97 0.83 0.64 0.55 0.48 0.40 0.34 0.28 0.22 0.21 0.14 0.09
1.55 1.57 1.50 1.39 1.43 1.53 1.61 1.68 1.71 1.78 1.68 1.74 1.65 1.62 1.57 1.46 1.40 1.30 1.21 1.17 1.06 1.19 1.32 1.46 1.55 1.56 1.65 1.61 1.55 1.45 1.23 1.04 0.89 0.69 0.54 0.49 0.45 0.38 0.32 0.28 0.28 0.23 0.17
1.31 1.35 1.24 1.23 1.33 1.26 1.25 1.30 1.28 1.32 1.34 1.47 1.44 1.32 1.31 1.32 1.30 1.30 1.19 1.05 1.00 0.85 1.12 1.43 1.55 1.44 1.56 1.71 1.82 1.83 1.48 1.11 0.89 0.76 0.61 0.50 0.47 0.38 0.29 0.23 0.22 0.25 0.20
0.79 0.84 0.81 0.84 0.91 0.92 0.92 0.90 1.05 1.12 1.16 1.27 1.31 1.13 1.08 1.17 1.19 1.19 1.12 0.93 0.98 0.90 0.86 1.08 1.31 1.29 1.50 1.78 2.02 2.06 1.83 1.40 1.04 0.90 0.78 0.66 0.60 0.46 0.32 0.26 0.22 0.19 0.17
0.62 0.59 0.57 0.58 0.57 0.61 0.67 0.71 0.74 0.84 0.87 0.92 0.93 0.89 0.92 0.87 0.94 0.96 0.87 0.86 0.81 0.70 0.70 0.87 1.14 1.03 1.30 1.62 1.83 1.95 1.99 1.85 1.47 1.16 0.99 0.92 0.86 0.66 0.40 0.30 0.26 0.22 0.17
0.44 0.46 0.41 0.41 0.40 0.39 0.41 0.45 0.52 0.57 0.60 0.69 0.73 0.68 0.63 0.60 0.64 0.64 0.65 0.71 0.67 0.67 0.71 0.79 0.92 0.97 0.95 1.09 1.25 1.51 1.88 2.04 1.87 1.54 1.28 1.10 1.04 0.88 0.56 0.39 0.30 0.28 0.27
0.30 0.30 0.30 0.31 0.31 0.30 0.30 0.33 0.36 0.37 0.40 0.51 0.58 0.60 0.52 0.49 0.47 0.42 0.50 0.48 0.50 0.67 0.71 0.69 0.77 0.92 0.93 1.06 0.90 1.04 1.50 1.87 2.10 1.98 1.69 1.38 1.16 0.97 0.75 0.58 0.42 0.33 0.32
0.22 0.23 0.23 0.24 0.27 0.28 0.29 0.33 0.32 0.33 0.32 0.34 0.44 0.56 0.52 0.44 0.37 0.35 0.38 0.43 0.50 0.59 0.62 0.72 0.73 0.73 0.76 0.91 1.07 1.08 1.18 1.36 1.86 2.22 2.13 1.69 1.27 0.99 0.87 0.80 0.68 0.55 0.43
0.18 0.17 0.17 0.16 0.18 0.23 0.29 0.29 0.34 0.34 0.32 0.26 0.30 0.39 0.44 0.46 0.46 0.39 0.37 0.39 0.49 0.55 0.57 0.60 0.62 0.70 0.83 0.94 1.05 1.07 0.93 0.99 1.38 1.85 2.10 1.96 1.55 1.19 0.97 0.95 1.06 0.99 0.74
0.18 0.18 0.18 0.17 0.15 0.16 0.20 0.23 0.31 0.35 0.36 0.31 0.29 0.33 0.36 0.38 0.41 0.41 0.32 0.31 0.38 0.37 0.41 0.47 0.59 0.65 0.75 0.95 1.15 1.03 0.84 0.79 0.95 1.29 1.58 1.71 1.66 1.40 1.13 1.04 1.26 1.39 1.18
0.18 0.17 0.18 0.19 0.19 0.18 0.15 0.15 0.20 0.27 0.34 0.36 0.32 0.30 0.37 0.39 0.39 0.42 0.31 0.24 0.28 0.25 0.28 0.32 0.44 0.57 0.72 0.88 0.90 0.90 0.91 0.85 0.86 0.94 1.09 1.26 1.42 1.41 1.32 1.33 1.48 1.64 1.64
0.16 0.16 0.17 0.18 0.19 0.20 0.19 0.17 0.16 0.19 0.26 0.32 0.31 0.32 0.34 0.33 0.40 0.41 0.33 0.27 0.30 0.31 0.41 0.40 0.45 0.63 0.70 0.91 0.89 0.90 0.90 0.86 0.75 0.70 0.74 0.83 0.95 1.13 1.29 1.36 1.51 1.66 1.79
0.22 0.21 0.16 0.15 0.17 0.18 0.18 0.18 0.17 0.17 0.21 0.26 0.28 0.38 0.37 0.29 0.36 0.38 0.39 0.44 0.43 0.45 0.52 0.50 0.59 0.83 1.04 1.07 1.06 0.94 0.77 0.74 0.65 0.60 0.56 0.58 0.64 0.75 0.86 0.98 1.12 1.23 1.35
0.23 0.21 0.18 0.15 0.15 0.16 0.17 0.18 0.18 0.20 0.23 0.26 0.32 0.41 0.42 0.39 0.40 0.41 0.45 0.56 0.62 0.54 0.54 0.64 0.76 0.85 0.95 0.96 0.96 0.85 0.68 0.68 0.61 0.55 0.50 0.47 0.48 0.53 0.60 0.64 0.69 0.76 0.83
0.19 0.18 0.17 0.14 0.12 0.14 0.16 0.17 0.19 0.23 0.26 0.32 0.39 0.45 0.51 0.51 0.51 0.51 0.52 0.60 0.73 0.71 0.66 0.67 0.75 0.76 0.76 0.62 0.64 0.64 0.61 0.63 0.55 0.50 0.48 0.45 0.42 0.43 0.46 0.51 0.54 0.56 0.59
0.18 0.16 0.16 0.15 0.13 0.13 0.15 0.18 0.20 0.22 0.25 0.32 0.38 0.44 0.48 0.55 0.62 0.63 0.68 0.70 0.73 0.84 0.78 0.66 0.77 0.86 0.78 0.60 0.51 0.51 0.53 0.53 0.51 0.50 0.47 0.46 0.44 0.43 0.42 0.41 0.45 0.49 0.48
0.16 0.16 0.16 0.14 0.11 0.11 0.15 0.19 0.22 0.23 0.25 0.29 0.36 0.46 0.50 0.52 0.58 0.65 0.76 0.79 0.81 0.93 0.93 0.78 0.85 0.94 0.86 0.74 0.61 0.53 0.44 0.43 0.44 0.48 0.47 0.48 0.47 0.44 0.42 0.40 0.38 0.37 0.37
0.17 0.17 0.17 0.15 0.13 0.12 0.13 0.15 0.20 0.23 0.28 0.29 0.34 0.42 0.50 0.58 0.61 0.65 0.75 0.79 0.85 1.00 1.05 0.96 0.96 1.06 1.09 0.88 0.66 0.51 0.42 0.42 0.39 0.43 0.45 0.47 0.47 0.44 0.40 0.39 0.40 0.36 0.32
0.16 0.19 0.21 0.21 0.19 0.17 0.16 0.14 0.14 0.17 0.22 0.27 0.36 0.39 0.43 0.55 0.64 0.69 0.77 0.88 0.96 1.05 1.12 1.10 1.13 1.24 1.24 1.10 0.85 0.58 0.48 0.45 0.43 0.39 0.42 0.42 0.43 0.41 0.38 0.34 0.33 0.33 0.33
0.23 0.29 0.31 0.29 0.28 0.23 0.16 0.14 0.16 0.15 0.17 0.20 0.27 0.34 0.35 0.40 0.50 0.62 0.70 0.81 0.98 1.13 1.28 1.34 1.35 1.50 1.46 1.26 0.99 0.70 0.58 0.52 0.49 0.46 0.43 0.37 0.35 0.33 0.31 0.31 0.30 0.30 0.29
0.39 0.41 0.39 0.39 0.38 0.28 0.22 0.18 0.17 0.17 0.18 0.21 0.25 0.31 0.32 0.31 0.34 0.40 0.50 0.64 0.79 0.96 1.16 1.35 1.47 1.57 1.62 1.48 1.28 1.03 0.72 0.53 0.49 0.50 0.48 0.46 0.42 0.38 0.34 0.30 0.31 0.29 0.29
0.45 0.47 0.46 0.46 0.44 0.41 0.31 0.22 0.17 0.17 0.20 0.24 0.27 0.30 0.25 0.21 0.28 0.32 0.37 0.44 0.54 0.65 0.81 1.02 1.22 1.32 1.49 1.61 1.48 1.19 0.91 0.70 0.56 0.54 0.52 0.48 0.47 0.45 0.42 0.38 0.40 0.34 0.30
0.58 0.55 0.52 0.52 0.53 0.49 0.39 0.28 0.23 0.21 0.23 0.25 0.28 0.30 0.30 0.27 0.30 0.36 0.41 0.40 0.40 0.43 0.51 0.63 0.78 1.02 1.22 1.44 1.49 1.38 1.28 1.03 0.79 0.63 0.58 0.51 0.44 0.42 0.43 0.41 0.41 0.37 0.34
0.64 0.63 0.64 0.66 0.66 0.64 0.51 0.34 0.28 0.28 0.31 0.30 0.32 0.35 0.39 0.35 0.30 0.27 0.35 0.36 0.35 0.35 0.35 0.43 0.56 0.77 1.02 1.20 1.38 1.38 1.27 1.13 0.91 0.68 0.55 0.49 0.41 0.40 0.39 0.36 0.36 0.37 0.35
0.62 0.65 0.69 0.74 0.77 0.74 0.63 0.41 0.34 0.33 0.37 0.38 0.43 0.45 0.42 0.34 0.31 0.23 0.29 0.34 0.33 0.32 0.37 0.38 0.45 0.55 0.69 0.93 1.14 1.17 1.08 1.01 0.88 0.68 0.50 0.45 0.39 0.38 0.40 0.32 0.26 0.27 0.29

GEFSMA_prec_meanprecacc_096.txt.gz
Total_Precipitation_Accumulation
1.75 1.84 1.56 1.48 1.46 1.65 1.89 1.86 1.74 1.79 1.90 1.92 1.75 1.65 1.47 1.17 1.04 1.02 1.12 1.44 1.46 1.45 1.63 1.66 1.62 1.52 1.37 1.19 1.08 0.98 0.93 0.88 0.76 0.62 0.54 0.43 0.32 0.28 0.19 0.12 0.09 0.08 0.06
1.67 1.55 1.55 1.55 1.46 1.62 1.67 1.74 1.78 1.94 1.98 2.07 1.80 1.67 1.53 1.39 1.28 1.23 1.17 1.43 1.45 1.36 1.46 1.67 1.73 1.73 1.71 1.53 1.33 1.22 1.10 1.03 0.86 0.66 0.57 0.51 0.42 0.35 0.29 0.23 0.21 0.15 0.10
1.57 1.58 1.51 1.40 1.44 1.55 1.63 1.70 1.72 1.79 1.69 1.75 1.66 1.63 1.58 1.46 1.42 1.32 1.22 1.18 1.09 1.25 1.40 1.54 1.65 1.68 1.78 1.76 1.68 1.57 1.34 1.12 0.95 0.73 0.57 0.52 0.48 0.39 0.33 0.29 0.29 0.25 0.18
1.31 1.36 1.25 1.24 1.34 1.26 1.26 1.31 1.30 1.33 1.35 1.47 1.44 1.33 1.32 1.33 1.32 1.32 1.20 1.06 1.02 0.88 1.17 1.50 1.61 1.52 1.66 1.84 1.99 1.98 1.61 1.20 0.98 0.82 0.64 0.53 0.50 0.41 0.31 0.24 0.23 0.26 0.21
0.80 0.85 0.82 0.86 0.92 0.92 0.93 0.90 1.06 1.12 1.17 1.27 1.31 1.14 1.09 1.18 1.20 1.20 1.13 0.94 1.00 0.92 0.89 1.12 1.37 1.36 1.59 1.91 2.17 2.22 1.98 1.51 1.13 0.99 0.87 0.74 0.67 0.51 0.36 0.29 0.24 0.21 0.18
0.63 0.60 0.59 0.60 0.59 0.62 0.67 0.71 0.75 0.84 0.87 0.92 0.94 0.89 0.92 0.87 0.94 0.96 0.87 0.86 0.82 0.72 0.71 0.89 1.17 1.06 1.36 1.70 1.94 2.07 2.13 1.99 1.60 1.27 1.10 1.05 1.00 0.76 0.47 0.35 0.30 0.25 0.19
0.45 0.47 0.42 0.42 0.41 0.40 0.41 0.45 0.52 0.57 0.60 0.69 0.73 0.68 0.63 0.60 0.64 0.64 0.66 0.72 0.68 0.68 0.72 0.80 0.93 0.98 0.98 1.14 1.30 1.59 1.99 2.17 2.00 1.64 1.37 1.20 1.14 0.98 0.64 0.47 0.36 0.33 0.30
0.31 0.31 0.30 0.32 0.32 0.30 0.30 0.33 0.37 0.38 0.40 0.51 0.58 0.60 0.52 0.49 0.47 0.42 0.50 0.48 0.50 0.67 0.72 0.71 0.78 0.93 0.94 1.07 0.92 1.08 1.56 1.95 2.20 2.08 1.78 1.45 1.23 1.04 0.81 0.65 0.49 0.40 0.37
0.23 0.23 0.23 0.24 0.27 0.28 0.29 0.33 0.32 0.33 0.32 0.34 0.44 0.56 0.52 0.44 0.37 0.35 0.38 0.43 0.50 0.59 0.63 0.74 0.74 0.74 0.77 0.92 1.08 1.09 1.20 1.39 1.92 2.30 2.22 1.78 1.34 1.04 0.92 0.86 0.75 0.61 0.48
0.18 0.18 0.17 0.16 0.18 0.23 0.29 0.29 0.34 0.34 0.32 0.26 0.30 0.39 0.44 0.46 0.46 0.39 0.37 0.39 0.49 0.55 0.57 0.60 0.63 0.71 0.83 0.95 1.06 1.09 0.94 1.02 1.41 1.90 2.17 2.03 1.61 1.23 1.01 0.99 1.11 1.05 0.79
0.18 0.18 0.18 0.17 0.15 0.16 0.20 0.23 0.31 0.35 0.36 0.31 0.29 0.33 0.36 0.38 0.41 0.41 0.32 0.31 0.38 0.37 0.41 0.47 0.59 0.65 0.75 0.95 1.16 1.04 0.85 0.79 0.96 1.31 1.62 1.76 1.70 1.44 1.19 1.10 1.33 1.46 1.25
0.18 0.17 0.18 0.19 0.19 0.18 0.15 0.15 0.20 0.27 0.34 0.36 0.32 0.30 0.37 0.39 0.39 0.42 0.31 0.24 0.28 0.25 0.28 0.32 0.44 0.57 0.72 0.88 0.90 0.91 0.91 0.85 0.86 0.95 1.10 1.28 1.44 1.43 1.35 1.37 1.54 1.71 1.72
0.16 0.16 0.17 0.18 0.19 0.20 0.19 0.17 0.16 0.19 0.26 0.32 0.31 0.32 0.34 0.33 0.40 0.41 0.33 0.27 0.30 0.31 0.41 0.40 0.45 0.64 0.70 0.91 0.89 0.90 0.90 0.86 0.75 0.70 0.74 0.83 0.96 1.14 1.30 1.38 1.53 1.69 1.84
0.22 0.21 0.16 0.15 0.17 0.18 0.18 0.18 0.17 0.17 0.21 0.26 0.28 0.38 0.37 0.29 0.36 0.38 0.39 0.44 0.43 0.45 0.52 0.50 0.59 0.83 1.04 1.07 1.06 0.94 0.77 0.74 0.65 0.60 0.56 0.58 0.64 0.75 0.86 0.99 1.13 1.24 1.36
0.24 0.22 0.18 0.15 0.15 0.16 0.17 0.18 0.18 0.20 0.23 0.26 0.32 0.41 0.42 0.39 0.40 0.41 0.45 0.56 0.62 0.54 0.54 0.64 0.76 0.85 0.95 0.96 0.96 0.85 0.68 0.68 0.61 0.55 0.50 0.47 0.48 0.53 0.60 0.64 0.69 0.76 0.83
0.19 0.18 0.17 0.14 0.12 0.14 0.16 0.17 0.19 0.23 0.26 0.32 0.39 0.45 0.51 0.51 0.51 0.51 0.52 0.60 0.73 0.71 0.66 0.67 0.75 0.76 0.76 0.62 0.64 0.64 0.61 0.63 0.55 0.50 0.48 0.45 0.42 0.43 0.46 0.51 0.55 0.57 0.59
0.19 0.16 0.16 0.15 0.13 0.13 0.15 0.18 0.20 0.22 0.26 0.32 0.38 0.44 0.48 0.55 0.62 0.63 0.68 0.70 0.73 0.84 0.78 0.66 0.77 0.86 0.78 0.60 0.51 0.51 0.53 0.53 0.51 0.50 0.47 0.46 0.44 0.43 0.42 0.41 0.45 0.49 0.48
0.17 0.16 0.16 0.14 0.12 0.12 0.15 0.20 0.22 0.23 0.25 0.29 0.36 0.47 0.50 0.52 0.58 0.65 0.76 0.79 0.81 0.93 0.93 0.78 0.85 0.94 0.86 0.74 0.61 0.53 0.44 0.43 0.44 0.48 0.47 0.48 0.47 0.44 0.42 0.40 0.38 0.37 0.37
0.18 0.18 0.18 0.16 0.14 0.13 0.14 0.17 0.22 0.25 0.29 0.31 0.35 0.43 0.50 0.58 0.61 0.66 0.75 0.79 0.85 1.00 1.05 0.96 0.96 1.06 1.09 0.88 0.66 0.51 0.42 0.42 0.39 0.43 0.45 0.47 0.47 0.44 0.40 0.39 0.40 0.36 0.32
0.17 0.21 0.24 0.24 0.22 0.19 0.18 0.18 0.19 0.20 0.24 0.30 0.37 0.40 0.44 0.55 0.65 0.69 0.77 0.88 0.96 1.05 1.12 1.10 1.13 1.24 1.24 1.10 0.85 0.58 0.48 0.45 0.43 0.39 0.42 0.42 0.43 0.41 0.38 0.34 0.33 0.33 0.33
0.26 0.34 0.35 0.34 0.32 0.28 0.21 0.19 0.20 0.18 0.20 0.23 0.29 0.36 0.37 0.42 0.52 0.64 0.71 0.82 0.99 1.14 1.29 1.34 1.35 1.50 1.46 1.26 0.99 0.70 0.58 0.52 0.49 0.46 0.43 0.37 0.35 0.33 0.31 0.31 0.30 0.30 0.29
0.46 0.49 0.46 0.45 0.45 0.36 0.30 0.26 0.23 0.21 0.22 0.24 0.28 0.35 0.35 0.35 0.37 0.43 0.53 0.66 0.81 0.97 1.17 1.35 1.48 1.57 1.62 1.48 1.28 1.03 0.72 0.53 0.49 0.50 0.48 0.46 0.42 0.38 0.34 0.30 0.31 0.29 0.29
0.53 0.56 0.55 0.55 0.53 0.51 0.42 0.31 0.25 0.24 0.27 0.30 0.33 0.36 0.30 0.25 0.33 0.36 0.40 0.47 0.56 0.67 0.83 1.05 1.23 1.33 1.50 1.62 1.49 1.19 0.91 0.71 0.56 0.54 0.52 0.48 0.47 0.45 0.42 0.38 0.40 0.34 0.30
0.67 0.67 0.65 0.65 0.65 0.62 0.51 0.38 0.32 0.29 0.31 0.32 0.35 0.37 0.36 0.33 0.34 0.39 0.44 0.43 0.42 0.45 0.54 0.66 0.80 1.03 1.23 1.45 1.50 1.39 1.29 1.03 0.79 0.64 0.58 0.51 0.44 0.42 0.43 0.41 0.41 0.37 0.34
0.76 0.76 0.79 0.80 0.79 0.74 0.62 0.44 0.38 0.36 0.39 0.39 0.40 0.42 0.45 0.41 0.35 0.31 0.37 0.38 0.37 0.37 0.37 0.45 0.57 0.78 1.03 1.21 1.40 1.39 1.28 1.14 0.91 0.68 0.55 0.49 0.41 0.40 0.39 0.36 0.36 0.38 0.36
0.68 0.71 0.74 0.81 0.85 0.84 0.74 0.53 0.46 0.42 0.45 0.47 0.51 0.52 0.48 0.40 0.36 0.27 0.31 0.36 0.34 0.32 0.38 0.39 0.45 0.56 0.69 0.94 1.15 1.19 1.10 1.02 0.89 0.69 0.51 0.45 0.39 0.38 0.40 0.32 0.26 0.27 0.29

GEFSMA_prec_meanprecacc_102.txt.gz
Total_Precipitation_Accumulation
1.79 1.87 1.60 1.51 1.48 1.67 1.92 1.88 1.76 1.82 1.93 1.95 1.78 1.68 1.50 1.21 1.07 1.06 1.16 1.48 1.50 1.51 1.71 1.75 1.70 1.60 1.45 1.27 1.15 1.04 0.98 0.91 0.78 0.63 0.55 0.45 0.35 0.30 0.20 0.13 0.10 0.08 0.06
1.72 1.60 1.59 1.58 1.49 1.64 1.70 1.77 1.81 1.97 2.02 2.13 1.85 1.72 1.58 1.43 1.32 1.27 1.22 1.47 1.49 1.41 1.53 1.76 1.83 1.83 1.81 1.63 1.44 1.31 1.18 1.08 0.90 0.68 0.59 0.52 0.43 0.36 0.30 0.24 0.22 0.15 0.10
1.62 1.63 1.55 1.43 1.47 1.57 1.67 1.72 1.75 1.83 1.74 1.79 1.72 1.68 1.62 1.50 1.46 1.36 1.27 1.22 1.13 1.30 1.46 1.62 1.74 1.80 1.90 1.85 1.78 1.67 1.43 1.21 1.02 0.77 0.59 0.55 0.49 0.41 0.36 0.31 0.30 0.25 0.19
1.36 1.41 1.29 1.28 1.38 1.29 1.30 1.35 1.34 1.36 1.39 1.51 1.49 1.37 1.36 1.38 1.35 1.36 1.25 1.11 1.06 0.92 1.22 1.56 1.67 1.58 1.74 1.93 2.07 2.07 1.68 1.28 1.05 0.87 0.68 0.56 0.53 0.43 0.33 0.27 0.25 0.28 0.22
0.84 0.90 0.87 0.90 0.95 0.96 0.96 0.93 1.08 1.15 1.21 1.31 1.35 1.17 1.12 1.22 1.23 1.23 1.17 0.99 1.05 0.96 0.95 1.17 1.41 1.40 1.64 1.98 2.26 2.32 2.06 1.59 1.20 1.05 0.92 0.78 0.72 0.56 0.39 0.31 0.26 0.23 0.19
0.67 0.65 0.63 0.64 0.61 0.65 0.71 0.75 0.78 0.87 0.89 0.94 0.96 0.91 0.94 0.89 0.97 0.99 0.90 0.91 0.86 0.74 0.75 0.93 1.22 1.11 1.41 1.76 2.00 2.15 2.21 2.07 1.68 1.35 1.16 1.11 1.06 0.83 0.52 0.39 0.32 0.28 0.21
0.49 0.51 0.46 0.45 0.44 0.43 0.44 0.47 0.54 0.59 0.61 0.70 0.75 0.70 0.65 0.61 0.66 0.66 0.68 0.75 0.71 0.71 0.75 0.85 0.99 1.04 1.03 1.17 1.34 1.63 2.05 2.23 2.07 1.71 1.43 1.26 1.20 1.03 0.68 0.50 0.40 0.37 0.34
0.34 0.33 0.33 0.35 0.34 0.32 0.33 0.35 0.39 0.39 0.41 0.52 0.59 0.62 0.54 0.50 0.48 0.43 0.51 0.49 0.52 0.69 0.74 0.74 0.83 0.99 0.99 1.14 0.96 1.11 1.60 2.00 2.26 2.14 1.84 1.51 1.30 1.10 0.86 0.68 0.52 0.44 0.40
0.24 0.25 0.25 0.26 0.29 0.30 0.31 0.34 0.34 0.34 0.33 0.34 0.44 0.57 0.54 0.45 0.38 0.36 0.39 0.43 0.51 0.60 0.65 0.76 0.78 0.77 0.81 0.98 1.13 1.12 1.22 1.41 1.95 2.35 2.29 1.84 1.39 1.08 0.96 0.90 0.79 0.65 0.52
0.19 0.18 0.18 0.17 0.19 0.24 0.30 0.30 0.34 0.34 0.32 0.26 0.30 0.40 0.44 0.47 0.47 0.40 0.38 0.40 0.49 0.56 0.58 0.61 0.64 0.73 0.85 0.97 1.08 1.10 0.95 1.03 1.42 1.93 2.21 2.07 1.65 1.27 1.04 1.03 1.18 1.11 0.84
0.19 0.19 0.19 0.17 0.16 0.16 0.21 0.23 0.31 0.35 0.36 0.31 0.29 0.33 0.36 0.38 0.42 0.41 0.32 0.31 0.38 0.37 0.41 0.48 0.60 0.66 0.76 0.96 1.17 1.05 0.85 0.80 0.96 1.32 1.63 1.78 1.73 1.47 1.22 1.14 1.40 1.55 1.33
0.19 0.18 0.19 0.19 0.19 0.18 0.15 0.16 0.20 0.27 0.34 0.37 0.32 0.30 0.37 0.39 0.39 0.42 0.31 0.24 0.28 0.25 0.28 0.32 0.44 0.58 0.72 0.88 0.90 0.91 0.91 0.85 0.86 0.95 1.11 1.29 1.45 1.45 1.37 1.39 1.58 1.77 1.79
0.17 0.16 0.17 0.18 0.19 0.20 0.19 0.17 0.16 0.19 0.26 0.32 0.31 0.32 0.34 0.33 0.40 0.41 0.33 0.27 0.31 0.31 0.42 0.41 0.46 0.64 0.70 0.91 0.90 0.90 0.90 0.86 0.75 0.70 0.75 0.84 0.97 1.15 1.31 1.39 1.55 1.72 1.88
0.23 0.22 0.17 0.16 0.17 0.18 0.19 0.19 0.17 0.17 0.21 0.26 0.28 0.38 0.37 0.29 0.36 0.38 0.39 0.44 0.44 0.46 0.52 0.51 0.60 0.83 1.05 1.07 1.06 0.94 0.77 0.74 0.65 0.61 0.56 0.58 0.65 0.76 0.87 0.99 1.13 1.25 1.37
0.25 0.23 0.19 0.16 0.15 0.17 0.18 0.19 0.19 0.21 0.23 0.26 0.32 0.41 0.43 0.39 0.40 0.41 0.45 0.56 0.63 0.54 0.54 0.64 0.76 0.85 0.95 0.97 0.96 0.85 0.69 0.68 0.61 0.55 0.50 0.47 0.48 0.53 0.60 0.65 0.69 0.76 0.84
0.21 0.19 0.18 0.14 0.13 0.14 0.16 0.18 0.19 0.23 0.27 0.32 0.40 0.45 0.51 0.51 0.52 0.51 0.52 0.60 0.73 0.72 0.66 0.67 0.75 0.76 0.76 0.62 0.64 0.64 0.61 0.63 0.55 0.50 0.48 0.45 0.42 0.43 0.46 0.51 0.55 0.57 0.60
0.20 0.18 0.17 0.15 0.14 0.14 0.16 0.19 0.21 0.22 0.26 0.32 0.38 0.44 0.48 0.56 0.62 0.64 0.69 0.70 0.74 0.84 0.79 0.66 0.77 0.86 0.78 0.61 0.51 0.52 0.53 0.54 0.51 0.50 0.47 0.46 0.44 0.43 0.42 0.41 0.45 0.49 0.48
0.18 0.17 0.17 0.15 0.13 0.13 0.17 0.21 0.23 0.24 0.26 0.30 0.37 0.47 0.50 0.52 0.58 0.65 0.77 0.79 0.81 0.94 0.93 0.79 0.85 0.94 0.86 0.74 0.61 0.54 0.44 0.43 0.44 0.48 0.47 0.48 0.47 0.44 0.42 0.40 0.38 0.37 0.37
0.20 0.20 0.20 0.18 0.16 0.15 0.16 0.18 0.23 0.27 0.31 0.33 0.37 0.44 0.51 0.59 0.61 0.66 0.75 0.79 0.85 1.00 1.05 0.97 0.96 1.07 1.10 0.89 0.67 0.52 0.42 0.43 0.39 0.43 0.45 0.47 0.47 0.44 0.40 0.39 0.40 0.36 0.32
0.20 0.24 0.26 0.26 0.24 0.21 0.20 0.20 0.20 0.23 0.27 0.32 0.40 0.43 0.46 0.56 0.65 0.70 0.78 0.89 0.97 1.06 1.14 1.11 1.14 1.24 1.24 1.11 0.86 0.58 0.49 0.46 0.44 0.40 0.42 0.42 0.43 0.41 0.38 0.34 0.33 0.33 0.33
0.30 0.38 0.39 0.37 0.35 0.31 0.24 0.22 0.23 0.21 0.23 0.26 0.32 0.38 0.39 0.44 0.54 0.66 0.73 0.84 1.01 1.16 1.31 1.36 1.36 1.52 1.47 1.29 1.02 0.72 0.60 0.53 0.50 0.47 0.44 0.37 0.35 0.33 0.31 0.31 0.30 0.30 0.29
0.52 0.54 0.50 0.49 0.49 0.38 0.33 0.29 0.27 0.25 0.26 0.28 0.32 0.39 0.39 0.39 0.42 0.48 0.58 0.71 0.85 1.01 1.21 1.39 1.51 1.61 1.66 1.53 1.33 1.07 0.75 0.56 0.50 0.51 0.50 0.47 0.42 0.38 0.34 0.30 0.31 0.29 0.29
0.57 0.59 0.58 0.58 0.57 0.55 0.45 0.34 0.28 0.27 0.30 0.34 0.38 0.41 0.35 0.30 0.37 0.40 0.44 0.51 0.60 0.71 0.86 1.08 1.27 1.37 1.54 1.67 1.54 1.24 0.96 0.75 0.60 0.57 0.56 0.50 0.48 0.46 0.42 0.38 0.40 0.34 0.30
0.70 0.70 0.67 0.66 0.68 0.66 0.55 0.42 0.37 0.32 0.34 0.36 0.40 0.42 0.40 0.36 0.38 0.43 0.48 0.46 0.45 0.48 0.57 0.68 0.83 1.05 1.26 1.48 1.54 1.42 1.32 1.06 0.81 0.65 0.60 0.52 0.45 0.42 0.43 0.41 0.41 0.37 0.34
0.78 0.79 0.81 0.82 0.81 0.77 0.65 0.47 0.41 0.39 0.42 0.42 0.44 0.46 0.49 0.44 0.39 0.36 0.42 0.42 0.41 0.41 0.41 0.49 0.60 0.81 1.05 1.22 1.41 1.41 1.30 1.16 0.93 0.69 0.57 0.51 0.43 0.41 0.40 0.36 0.37 0.38 0.36
0.70 0.73 0.76 0.83 0.87 0.86 0.76 0.55 0.47 0.44 0.48 0.50 0.54 0.55 0.51 0.43 0.39 0.31 0.36 0.41 0.39 0.37 0.43 0.43 0.48 0.58 0.70 0.95 1.16 1.20 1.12 1.05 0.92 0.71 0.53 0.48 0.41 0.40 0.41 0.32 0.26 0.28 0.29

GEFSMA_prec_meanprecacc_108.txt.gz
Total_Precipitation_Accumulation
1.88 1.95 1.66 1.57 1.54 1.72 1.97 1.93 1.81 1.87 1.97 1.98 1.81 1.72 1.53 1.23 1.10 1.10 1.21 1.51 1.52 1.53 1.73 1.77 1.72 1.63 1.48 1.29 1.17 1.06 1.00 0.93 0.80 0.65 0.58 0.47 0.37 0.31 0.20 0.13 0.10 0.09 0.06
1.80 1.67 1.65 1.63 1.55 1.69 1.75 1.81 1.85 2.02 2.06 2.15 1.87 1.74 1.59 1.44 1.34 1.30 1.25 1.50 1.51 1.42 1.54 1.79 1.86 1.86 1.84 1.66 1.46 1.33 1.20 1.11 0.92 0.69 0.61 0.54 0.45 0.38 0.31 0.25 0.22 0.16 0.10
1.70 1.69 1.61 1.48 1.52 1.63 1.72 1.77 1.79 1.86 1.76 1.81 1.74 1.70 1.64 1.53 1.48 1.39 1.31 1.26 1.16 1.31 1.48 1.65 1.77 1.83 1.93 1.88 1.80 1.70 1.46 1.24 1.04 0.79 0.60 0.56 0.51 0.42 0.37 0.32 0.31 0.26 0.20
1.42 1.47 1.34 1.32 1.41 1.33 1.35 1.40 1.37 1.39 1.42 1.54 1.52 1.40 1.40 1.43 1.39 1.39 1.29 1.15 1.13 0.96 1.24 1.57 1.68 1.60 1.76 1.95 2.10 2.11 1.73 1.32 1.08 0.89 0.70 0.57 0.54 0.44 0.34 0.28 0.26 0.29 0.23
0.89 0.95 0.92 0.94 0.98 0.99 0.99 0.95 1.11 1.18 1.24 1.34 1.36 1.21 1.15 1.25 1.25 1.27 1.22 1.02 1.09 1.02 1.01 1.19 1.42 1.41 1.65 2.00 2.29 2.35 2.10 1.62 1.23 1.07 0.93 0.80 0.73 0.58 0.40 0.32 0.27 0.24 0.20
0.70 0.69 0.67 0.67 0.64 0.68 0.74 0.78 0.82 0.91 0.92 0.96 0.96 0.93 0.95 0.90 0.99 1.02 0.93 0.94 0.90 0.77 0.79 0.96 1.24 1.12 1.42 1.77 2.03 2.17 2.24 2.11 1.72 1.38 1.19 1.14 1.09 0.85 0.53 0.40 0.33 0.28 0.21
0.53 0.55 0.49 0.48 0.47 0.48 0.48 0.51 0.58 0.63 0.63 0.71 0.76 0.73 0.68 0.63 0.67 0.67 0.69 0.77 0.73 0.73 0.80 0.90 1.04 1.08 1.05 1.18 1.35 1.65 2.08 2.27 2.11 1.75 1.48 1.30 1.25 1.07 0.71 0.52 0.42 0.39 0.35
0.37 0.35 0.35 0.36 0.37 0.36 0.37 0.40 0.44 0.45 0.45 0.53 0.61 0.66 0.58 0.53 0.50 0.44 0.52 0.50 0.53 0.72 0.77 0.78 0.86 1.02 1.02 1.18 0.98 1.12 1.62 2.03 2.30 2.17 1.87 1.55 1.34 1.14 0.89 0.72 0.56 0.46 0.42
0.26 0.26 0.26 0.27 0.32 0.32 0.34 0.38 0.38 0.38 0.37 0.37 0.46 0.60 0.57 0.50 0.42 0.38 0.40 0.44 0.51 0.61 0.66 0.79 0.80 0.80 0.83 1.02 1.17 1.14 1.23 1.43 1.97 2.39 2.33 1.88 1.41 1.10 0.98 0.94 0.83 0.68 0.54
0.21 0.19 0.18 0.19 0.21 0.26 0.33 0.32 0.37 0.37 0.35 0.29 0.31 0.40 0.45 0.49 0.49 0.44 0.40 0.41 0.50 0.56 0.59 0.62 0.66 0.75 0.88 1.00 1.11 1.11 0.95 1.03 1.44 1.95 2.24 2.10 1.68 1.29 1.06 1.05 1.21 1.15 0.88
0.22 0.20 0.20 0.19 0.18 0.19 0.23 0.25 0.33 0.37 0.38 0.32 0.30 0.33 0.37 0.39 0.42 0.43 0.34 0.33 0.39 0.37 0.41 0.48 0.60 0.67 0.77 0.97 1.18 1.05 0.85 0.80 0.97 1.33 1.65 1.79 1.75 1.49 1.23 1.16 1.42 1.58 1.37
0.22 0.20 0.21 0.21 0.21 0.20 0.18 0.17 0.21 0.29 0.36 0.38 0.32 0.30 0.38 0.39 0.39 0.42 0.31 0.25 0.28 0.25 0.29 0.33 0.45 0.59 0.73 0.89 0.91 0.91 0.91 0.85 0.86 0.95 1.11 1.29 1.46 1.46 1.38 1.41 1.60 1.80 1.83
0.20 0.19 0.20 0.20 0.21 0.22 0.21 0.19 0.17 0.21 0.27 0.33 0.33 0.33 0.34 0.34 0.40 0.41 0.33 0.27 0.31 0.31 0.42 0.41 0.46 0.65 0.71 0.92 0.90 0.91 0.90 0.86 0.75 0.70 0.75 0.85 0.97 1.15 1.32 1.40 1.56 1.74 1.91
0.26 0.24 0.19 0.18 0.19 0.20 0.20 0.20 0.18 0.19 0.23 0.27 0.29 0.39 0.38 0.29 0.36 0.39 0.39 0.46 0.45 0.47 0.53 0.51 0.60 0.83 1.05 1.08 1.07 0.94 0.77 0.74 0.65 0.61 0.56 0.58 0.65 0.76 0.87 0.99 1.14 1.25 1.37
0.28 0.25 0.20 0.17 0.17 0.18 0.19 0.20 0.20 0.22 0.25 0.28 0.33 0.42 0.44 0.40 0.41 0.41 0.46 0.57 0.64 0.56 0.56 0.65 0.77 0.85 0.95 0.97 0.97 0.85 0.69 0.68 0.62 0.55 0.50 0.47 0.48 0.53 0.60 0.65 0.69 0.76 0.84
0.26 0.23 0.20 0.16 0.16 0.17 0.18 0.20 0.21 0.25 0.28 0.34 0.41 0.46 0.52 0.52 0.52 0.52 0.53 0.61 0.75 0.73 0.68 0.67 0.75 0.76 0.76 0.63 0.66 0.65 0.62 0.63 0.56 0.50 0.48 0.45 0.42 0.43 0.46 0.51 0.55 0.57 0.60
0.28 0.23 0.20 0.19 0.17 0.17 0.19 0.23 0.23 0.24 0.27 0.33 0.39 0.45 0.50 0.57 0.63 0.65 0.70 0.71 0.75 0.85 0.80 0.67 0.78 0.86 0.78 0.62 0.53 0.53 0.54 0.55 0.52 0.51 0.48 0.47 0.45 0.43 0.42 0.41 0.45 0.49 0.48
0.25 0.23 0.21 0.19 0.16 0.16 0.21 0.25 0.25 0.25 0.28 0.32 0.39 0.50 0.53 0.54 0.60 0.67 0.79 0.81 0.83 0.96 0.94 0.80 0.86 0.95 0.87 0.76 0.63 0.55 0.45 0.43 0.45 0.50 0.49 0.49 0.47 0.44 0.42 0.40 0.38 0.37 0.37
0.25 0.24 0.24 0.23 0.20 0.19 0.20 0.22 0.27 0.30 0.35 0.38 0.42 0.50 0.56 0.64 0.65 0.70 0.79 0.82 0.87 1.03 1.08 0.99 0.97 1.08 1.11 0.90 0.70 0.54 0.44 0.45 0.40 0.43 0.47 0.48 0.47 0.44 0.40 0.39 0.40 0.36 0.32
0.24 0.28 0.32 0.33 0.30 0.26 0.25 0.25 0.27 0.30 0.36 0.41 0.49 0.50 0.54 0.64 0.72 0.77 0.84 0.95 1.02 1.10 1.19 1.16 1.17 1.28 1.28 1.14 0.91 0.64 0.54 0.52 0.47 0.40 0.43 0.45 0.44 0.42 0.38 0.34 0.33 0.33 0.33
0.36 0.46 0.48 0.46 0.43 0.38 0.30 0.29 0.32 0.31 0.37 0.38 0.43 0.49 0.49 0.53 0.61 0.73 0.79 0.91 1.07 1.22 1.38 1.44 1.43 1.59 1.55 1.38 1.11 0.81 0.68 0.60 0.55 0.49 0.46 0.39 0.37 0.34 0.33 0.33 0.32 0.31 0.30
0.61 0.65 0.61 0.59 0.59 0.45 0.38 0.34 0.31 0.33 0.35 0.39 0.43 0.49 0.49 0.46 0.47 0.52 0.61 0.74 0.88 1.06 1.26 1.45 1.58 1.68 1.74 1.61 1.41 1.15 0.83 0.63 0.56 0.56 0.57 0.50 0.44 0.41 0.36 0.32 0.35 0.33 0.31
0.69 0.71 0.69 0.68 0.65 0.61 0.48 0.35 0.29 0.30 0.34 0.39 0.44 0.47 0.41 0.35 0.41 0.44 0.49 0.54 0.62 0.73 0.88 1.10 1.29 1.40 1.58 1.71 1.59 1.28 1.01 0.80 0.64 0.61 0.62 0.53 0.50 0.48 0.42 0.38 0.43 0.36 0.31
0.81 0.79 0.75 0.75 0.75 0.71 0.59 0.45 0.39 0.34 0.36 0.38 0.42 0.44 0.43 0.39 0.41 0.47 0.52 0.51 0.50 0.52 0.60 0.70 0.84 1.07 1.28 1.50 1.56 1.45 1.34 1.09 0.83 0.67 0.64 0.56 0.47 0.44 0.44 0.42 0.43 0.40 0.36
0.87 0.87 0.88 0.88 0.87 0.83 0.69 0.50 0.42 0.40 0.44 0.44 0.46 0.48 0.52 0.46 0.42 0.38 0.44 0.45 0.45 0.44 0.43 0.51 0.62 0.82 1.06 1.23 1.42 1.42 1.31 1.18 0.94 0.70 0.59 0.54 0.44 0.42 0.41 0.36 0.37 0.39 0.37
0.79 0.81 0.83 0.89 0.92 0.90 0.79 0.56 0.48 0.45 0.49 0.52 0.57 0.57 0.53 0.44 0.40 0.32 0.37 0.42 0.40 0.39 0.44 0.45 0.50 0.59 0.71 0.96 1.17 1.21 1.13 1.06 0.93 0.72 0.54 0.49 0.42 0.41 0.42 0.32 0.27 0.28 0.30

GEFSMA_prec_meanprecacc_114.txt.gz
Total_Precipitation_Accumulation
1.92 2.00 1.70 1.60 1.56 1.74 1.98 1.95 1.83 1.91 2.02 2.03 1.88 1.79 1.60 1.32 1.19 1.15 1.25 1.55 1.56 1.56 1.75 1.78 1.73 1.64 1.49 1.30 1.17 1.07 1.01 0.93 0.81 0.65 0.58 0.48 0.38 0.31 0.20 0.13 0.10 0.09 0.07
1.83 1.70 1.68 1.66 1.57 1.71 1.76 1.82 1.87 2.05 2.11 2.19 1.92 1.79 1.65 1.51 1.39 1.35 1.29 1.53 1.54 1.46 1.58 1.82 1.88 1.88 1.86 1.67 1.47 1.34 1.21 1.12 0.93 0.70 0.61 0.55 0.46 0.38 0.31 0.25 0.22 0.16 0.10
1.73 1.71 1.63 1.50 1.54 1.64 1.74 1.78 1.80 1.89 1.79 1.84 1.78 1.75 1.70 1.59 1.52 1.42 1.33 1.29 1.18 1.34 1.51 1.68 1.80 1.85 1.96 1.90 1.83 1.72 1.48 1.26 1.05 0.79 0.60 0.56 0.51 0.42 0.37 0.33 0.31 0.26 0.20
1.46 1.49 1.35 1.34 1.44 1.34 1.36 1.41 1.39 1.41 1.44 1.57 1.56 1.45 1.46 1.47 1.42 1.41 1.31 1.17 1.14 0.98 1.27 1.61 1.72 1.63 1.79 1.99 2.15 2.16 1.77 1.35 1.10 0.90 0.70 0.57 0.54 0.44 0.34 0.28 0.26 0.29 0.23
0.93 0.97 0.93 0.96 1.00 1.00 1.01 0.97 1.13 1.19 1.25 1.35 1.38 1.23 1.18 1.28 1.28 1.28 1.23 1.04 1.11 1.03 1.02 1.22 1.45 1.44 1.68 2.03 2.33 2.41 2.16 1.67 1.26 1.10 0.95 0.81 0.74 0.58 0.40 0.32 0.27 0.24 0.20
0.74 0.71 0.68 0.69 0.66 0.69 0.75 0.79 0.84 0.91 0.93 0.97 0.97 0.94 0.97 0.92 1.01 1.03 0.94 0.96 0.92 0.79 0.80 0.97 1.25 1.13 1.44 1.80 2.07 2.22 2.30 2.17 1.77 1.43 1.24 1.17 1.11 0.87 0.54 0.41 0.34 0.29 0.22
0.56 0.58 0.51 0.50 0.48 0.49 0.49 0.52 0.59 0.64 0.65 0.72 0.78 0.76 0.70 0.64 0.69 0.68 0.70 0.78 0.75 0.75 0.82 0.92 1.05 1.09 1.06 1.21 1.38 1.69 2.12 2.30 2.14 1.78 1.51 1.33 1.29 1.10 0.73 0.54 0.43 0.40 0.36
0.41 0.39 0.38 0.38 0.37 0.37 0.39 0.42 0.46 0.46 0.46 0.55 0.63 0.67 0.59 0.54 0.50 0.44 0.53 0.51 0.54 0.73 0.80 0.79 0.87 1.03 1.02 1.18 0.98 1.14 1.64 2.06 2.33 2.21 1.90 1.57 1.37 1.17 0.92 0.75 0.58 0.48 0.43
0.29 0.29 0.28 0.28 0.32 0.34 0.37 0.40 0.39 0.39 0.38 0.39 0.47 0.61 0.58 0.51 0.43 0.39 0.42 0.45 0.53 0.62 0.67 0.80 0.81 0.81 0.84 1.03 1.17 1.14 1.25 1.45 2.00 2.42 2.37 1.91 1.44 1.12 1.00 0.97 0.86 0.71 0.56
0.23 0.21 0.20 0.20 0.21 0.27 0.35 0.33 0.37 0.37 0.35 0.29 0.32 0.41 0.46 0.49 0.50 0.44 0.41 0.42 0.50 0.56 0.59 0.62 0.66 0.76 0.89 1.01 1.11 1.11 0.96 1.04 1.45 1.97 2.27 2.13 1.70 1.31 1.07 1.07 1.23 1.17 0.90
0.26 0.23 0.22 0.20 0.18 0.19 0.24 0.26 0.34 0.38 0.38 0.32 0.31 0.34 0.37 0.39 0.42 0.43 0.35 0.33 0.39 0.38 0.42 0.48 0.61 0.67 0.78 0.98 1.19 1.06 0.86 0.81 0.98 1.34 1.66 1.81 1.77 1.51 1.24 1.17 1.44 1.61 1.41
0.30 0.24 0.23 0.22 0.21 0.20 0.19 0.18 0.23 0.30 0.37 0.38 0.33 0.31 0.38 0.40 0.40 0.42 0.31 0.25 0.29 0.25 0.29 0.33 0.45 0.59 0.73 0.89 0.91 0.91 0.92 0.86 0.86 0.95 1.11 1.30 1.47 1.47 1.39 1.43 1.62 1.82 1.86
0.28 0.24 0.22 0.22 0.22 0.23 0.22 0.20 0.19 0.22 0.29 0.34 0.33 0.33 0.34 0.34 0.40 0.42 0.33 0.27 0.31 0.31 0.42 0.41 0.46 0.65 0.71 0.92 0.90 0.91 0.90 0.86 0.76 0.70 0.75 0.85 0.97 1.15 1.32 1.41 1.58 1.76 1.93
0.34 0.30 0.23 0.20 0.20 0.20 0.21 0.21 0.19 0.21 0.24 0.28 0.29 0.39 0.38 0.30 0.36 0.39 0.40 0.46 0.45 0.47 0.53 0.51 0.60 0.83 1.05 1.08 1.07 0.95 0.77 0.75 0.65 0.61 0.56 0.58 0.65 0.76 0.87 1.00 1.14 1.26 1.38
0.35 0.32 0.26 0.21 0.20 0.20 0.21 0.22 0.21 0.23 0.25 0.28 0.33 0.42 0.44 0.41 0.41 0.42 0.46 0.57 0.64 0.56 0.56 0.65 0.77 0.86 0.96 0.97 0.97 0.85 0.69 0.68 0.62 0.55 0.50 0.47 0.48 0.53 0.60 0.65 0.69 0.76 0.84
0.31 0.29 0.25 0.22 0.21 0.21 0.22 0.23 0.23 0.26 0.29 0.34 0.41 0.47 0.53 0.53 0.53 0.53 0.54 0.62 0.75 0.73 0.68 0.68 0.76 0.77 0.77 0.63 0.66 0.66 0.62 0.64 0.57 0.51 0.49 0.46 0.43 0.44 0.46 0.51 0.55 0.57 0.60
0.33 0.29 0.27 0.24 0.23 0.22 0.24 0.27 0.26 0.25 0.28 0.34 0.40 0.46 0.51 0.58 0.64 0.67 0.71 0.72 0.75 0.86 0.80 0.68 0.78 0.86 0.79 0.62 0.53 0.54 0.55 0.55 0.53 0.52 0.49 0.48 0.46 0.44 0.43 0.42 0.46 0.49 0.48
0.33 0.31 0.30 0.26 0.21 0.19 0.25 0.29 0.29 0.27 0.29 0.33 0.41 0.51 0.53 0.55 0.62 0.70 0.80 0.82 0.84 0.97 0.95 0.80 0.86 0.95 0.87 0.76 0.64 0.56 0.46 0.44 0.45 0.51 0.51 0.51 0.49 0.46 0.44 0.41 0.39 0.38 0.37
0.35 0.32 0.32 0.30 0.26 0.23 0.23 0.26 0.30 0.32 0.37 0.41 0.46 0.53 0.59 0.65 0.68 0.73 0.81 0.83 0.89 1.04 1.09 0.99 0.97 1.09 1.12 0.91 0.71 0.55 0.45 0.46 0.41 0.45 0.49 0.50 0.49 0.46 0.42 0.41 0.41 0.37 0.33
0.34 0.37 0.40 0.41 0.38 0.32 0.29 0.29 0.31 0.33 0.39 0.45 0.54 0.55 0.59 0.68 0.76 0.81 0.88 0.98 1.05 1.13 1.21 1.18 1.18 1.29 1.29 1.16 0.93 0.66 0.56 0.54 0.49 0.43 0.47 0.48 0.47 0.43 0.39 0.35 0.34 0.34 0.34
0.46 0.57 0.60 0.57 0.51 0.44 0.34 0.34 0.37 0.35 0.42 0.44 0.48 0.53 0.54 0.58 0.66 0.77 0.83 0.94 1.10 1.25 1.41 1.46 1.45 1.60 1.56 1.39 1.13 0.83 0.69 0.62 0.57 0.52 0.49 0.42 0.40 0.37 0.35 0.35 0.34 0.34 0.32
0.72 0.77 0.72 0.69 0.67 0.52 0.45 0.41 0.38 0.38 0.41 0.43 0.47 0.53 0.53 0.50 0.50 0.56 0.65 0.78 0.91 1.08 1.28 1.47 1.59 1.69 1.75 1.62 1.42 1.16 0.84 0.64 0.57 0.57 0.58 0.52 0.46 0.43 0.38 0.35 0.38 0.36 0.34
0.80 0.82 0.79 0.76 0.72 0.68 0.55 0.41 0.35 0.35 0.38 0.43 0.47 0.49 0.43 0.37 0.43 0.46 0.51 0.57 0.65 0.75 0.89 1.11 1.30 1.40 1.59 1.72 1.59 1.29 1.02 0.81 0.65 0.62 0.64 0.54 0.51 0.50 0.44 0.40 0.45 0.38 0.34
0.98 0.95 0.88 0.85 0.83 0.77 0.64 0.49 0.44 0.39 0.39 0.41 0.44 0.46 0.44 0.40 0.41 0.47 0.52 0.51 0.51 0.53 0.61 0.71 0.85 1.08 1.29 1.52 1.58 1.46 1.35 1.10 0.84 0.68 0.65 0.57 0.48 0.45 0.45 0.43 0.45 0.41 0.37
1.06 1.02 1.00 0.98 0.95 0.89 0.75 0.55 0.47 0.44 0.48 0.47 0.47 0.49 0.53 0.47 0.42 0.38 0.45 0.46 0.45 0.44 0.44 0.51 0.62 0.82 1.07 1.24 1.43 1.42 1.32 1.18 0.95 0.70 0.59 0.54 0.45 0.42 0.41 0.37 0.38 0.40 0.38
0.94 0.92 0.93 0.96 0.98 0.96 0.84 0.60 0.51 0.47 0.52 0.54 0.59 0.59 0.55 0.45 0.41 0.32 0.37 0.42 0.40 0.39 0.44 0.45 0.50 0.59 0.71 0.96 1.17 1.21 1.13 1.07 0.94 0.73 0.54 0.49 0.42 0.42 0.42 0.32 0.27 0.28 0.31

GEFSMA_prec_meanprecacc_120.txt.gz
Total_Precipitation_Accumulation
1.92 2.00 1.70 1.61 1.57 1.74 1.98 1.95 1.84 1.92 2.03 2.05 1.90 1.80 1.62 1.33 1.21 1.17 1.28 1.60 1.61 1.62 1.81 1.82 1.76 1.66 1.52 1.32 1.19 1.09 1.03 0.95 0.82 0.66 0.59 0.49 0.38 0.31 0.21 0.14 0.11 0.09 0.07
1.84 1.70 1.69 1.67 1.58 1.72 1.77 1.83 1.87 2.07 2.13 2.21 1.95 1.81 1.67 1.53 1.42 1.37 1.31 1.56 1.60 1.51 1.63 1.88 1.96 1.93 1.90 1.72 1.52 1.39 1.24 1.15 0.97 0.72 0.63 0.57 0.47 0.39 0.32 0.25 0.22 0.16 0.11
1.74 1.73 1.65 1.51 1.54 1.65 1.75 1.78 1.81 1.90 1.81 1.87 1.82 1.79 1.73 1.61 1.54 1.44 1.35 1.31 1.21 1.39 1.56 1.74 1.87 1.93 2.03 1.97 1.90 1.80 1.56 1.32 1.09 0.82 0.63 0.59 0.53 0.43 0.38 0.33 0.32 0.26 0.20
1.49 1.52 1.37 1.35 1.44 1.35 1.37 1.42 1.39 1.42 1.45 1.59 1.58 1.49 1.49 1.49 1.44 1.43 1.33 1.20 1.17 1.01 1.31 1.67 1.78 1.69 1.86 2.06 2.23 2.27 1.89 1.43 1.15 0.94 0.72 0.59 0.56 0.45 0.35 0.30 0.28 0.30 0.23
0.97 1.01 0.96 0.97 1.02 1.02 1.02 0.98 1.14 1.20 1.26 1.36 1.39 1.24 1.20 1.32 1.31 1.30 1.25 1.06 1.13 1.05 1.05 1.26 1.51 1.49 1.73 2.10 2.42 2.51 2.26 1.76 1.34 1.16 1.00 0.84 0.76 0.60 0.42 0.34 0.28 0.25 0.21
0.80 0.76 0.71 0.72 0.68 0.70 0.77 0.81 0.86 0.93 0.94 0.99 0.99 0.96 0.99 0.94 1.03 1.06 0.96 0.98 0.94 0.81 0.83 0.99 1.27 1.16 1.49 1.86 2.15 2.30 2.37 2.25 1.85 1.49 1.30 1.23 1.17 0.92 0.57 0.43 0.36 0.31 0.24
0.61 0.63 0.55 0.53 0.50 0.50 0.52 0.54 0.61 0.66 0.66 0.74 0.80 0.77 0.72 0.65 0.69 0.70 0.72 0.80 0.76 0.77 0.84 0.93 1.06 1.09 1.08 1.24 1.42 1.73 2.18 2.37 2.22 1.84 1.57 1.39 1.35 1.16 0.78 0.59 0.48 0.44 0.39
0.45 0.43 0.42 0.40 0.39 0.40 0.43 0.45 0.47 0.48 0.48 0.56 0.64 0.68 0.60 0.55 0.51 0.45 0.54 0.53 0.56 0.74 0.81 0.81 0.88 1.03 1.03 1.19 1.00 1.17 1.69 2.12 2.39 2.27 1.96 1.61 1.40 1.20 0.96 0.79 0.63 0.53 0.47
0.33 0.33 0.32 0.31 0.34 0.37 0.39 0.41 0.40 0.40 0.39 0.40 0.48 0.61 0.58 0.51 0.43 0.39 0.42 0.46 0.54 0.63 0.69 0.82 0.83 0.82 0.85 1.03 1.18 1.15 1.27 1.49 2.06 2.48 2.43 1.97 1.49 1.15 1.03 1.00 0.91 0.76 0.61
0.28 0.25 0.25 0.23 0.23 0.29 0.36 0.34 0.39 0.39 0.36 0.30 0.33 0.41 0.46 0.49 0.50 0.45 0.41 0.42 0.51 0.57 0.59 0.62 0.66 0.76 0.90 1.02 1.12 1.12 0.97 1.06 1.49 2.02 2.34 2.21 1.78 1.35 1.10 1.10 1.27 1.22 0.94
0.32 0.28 0.27 0.24 0.21 0.21 0.25 0.28 0.36 0.40 0.40 0.34 0.32 0.34 0.38 0.39 0.42 0.43 0.35 0.33 0.39 0.38 0.42 0.48 0.61 0.67 0.78 0.98 1.19 1.07 0.87 0.82 0.99 1.35 1.69 1.85 1.82 1.55 1.27 1.20 1.47 1.66 1.46
0.37 0.31 0.28 0.27 0.24 0.22 0.20 0.20 0.26 0.33 0.39 0.40 0.34 0.31 0.38 0.40 0.40 0.42 0.31 0.25 0.29 0.25 0.29 0.33 0.45 0.59 0.73 0.89 0.91 0.91 0.92 0.86 0.87 0.96 1.12 1.31 1.49 1.49 1.42 1.45 1.65 1.87 1.91
0.34 0.29 0.26 0.25 0.24 0.25 0.23 0.22 0.22 0.25 0.31 0.37 0.35 0.34 0.34 0.34 0.40 0.42 0.33 0.27 0.31 0.31 0.42 0.41 0.46 0.65 0.71 0.92 0.91 0.91 0.90 0.87 0.76 0.71 0.76 0.85 0.98 1.17 1.34 1.43 1.60 1.79 1.96
0.39 0.36 0.28 0.24 0.23 0.23 0.23 0.23 0.22 0.23 0.26 0.31 0.31 0.40 0.38 0.30 0.36 0.39 0.40 0.46 0.45 0.47 0.53 0.51 0.60 0.83 1.05 1.08 1.07 0.95 0.77 0.75 0.66 0.61 0.56 0.59 0.65 0.76 0.88 1.00 1.15 1.27 1.39
0.42 0.39 0.32 0.25 0.23 0.24 0.23 0.23 0.23 0.25 0.27 0.29 0.35 0.43 0.44 0.41 0.41 0.42 0.46 0.57 0.64 0.56 0.56 0.65 0.77 0.86 0.96 0.97 0.97 0.85 0.69 0.68 0.62 0.55 0.51 0.48 0.49 0.54 0.61 0.65 0.70 0.77 0.84
0.37 0.35 0.30 0.25 0.25 0.26 0.26 0.26 0.26 0.28 0.30 0.36 0.42 0.48 0.54 0.54 0.54 0.54 0.55 0.63 0.76 0.74 0.68 0.68 0.76 0.77 0.77 0.63 0.66 0.66 0.63 0.64 0.57 0.52 0.49 0.46 0.43 0.44 0.46 0.52 0.55 0.57 0.60
0.40 0.35 0.32 0.29 0.26 0.25 0.28 0.31 0.29 0.28 0.30 0.36 0.42 0.47 0.52 0.59 0.66 0.68 0.72 0.73 0.76 0.86 0.80 0.68 0.78 0.86 0.79 0.62 0.53 0.54 0.55 0.56 0.53 0.52 0.50 0.48 0.46 0.45 0.43 0.42 0.46 0.50 0.49
0.38 0.37 0.34 0.29 0.24 0.22 0.28 0.33 0.33 0.31 0.32 0.35 0.42 0.52 0.54 0.56 0.63 0.71 0.81 0.83 0.84 0.97 0.95 0.80 0.86 0.95 0.87 0.76 0.64 0.56 0.46 0.44 0.46 0.51 0.51 0.51 0.49 0.46 0.44 0.42 0.39 0.38 0.38
0.41 0.39 0.38 0.35 0.30 0.27 0.28 0.30 0.33 0.36 0.39 0.42 0.47 0.54 0.60 0.66 0.69 0.73 0.81 0.84 0.89 1.04 1.09 0.99 0.97 1.09 1.12 0.91 0.71 0.55 0.45 0.46 0.41 0.45 0.49 0.50 0.49 0.46 0.43 0.42 0.42 0.38 0.34
0.42 0.45 0.47 0.47 0.43 0.38 0.34 0.33 0.35 0.36 0.41 0.48 0.55 0.57 0.60 0.69 0.76 0.81 0.88 0.99 1.06 1.14 1.22 1.18 1.18 1.29 1.29 1.16 0.93 0.66 0.56 0.54 0.49 0.43 0.47 0.49 0.47 0.44 0.40 0.37 0.35 0.35 0.36
0.59 0.68 0.71 0.65 0.59 0.51 0.41 0.41 0.42 0.38 0.45 0.46 0.50 0.56 0.57 0.60 0.67 0.78 0.84 0.95 1.11 1.25 1.41 1.46 1.45 1.60 1.56 1.39 1.14 0.83 0.70 0.62 0.57 0.52 0.49 0.42 0.40 0.37 0.36 0.36 0.35 0.35 0.33
0.83 0.88 0.85 0.81 0.78 0.61 0.56 0.51 0.45 0.44 0.46 0.47 0.50 0.56 0.55 0.52 0.52 0.58 0.67 0.79 0.92 1.08 1.28 1.47 1.60 1.69 1.75 1.62 1.42 1.16 0.84 0.64 0.57 0.57 0.59 0.52 0.47 0.44 0.39 0.35 0.39 0.36 0.35
0.89 0.91 0.88 0.85 0.82 0.77 0.64 0.50 0.44 0.43 0.45 0.49 0.52 0.54 0.47 0.40 0.45 0.47 0.52 0.57 0.65 0.75 0.90 1.11 1.30 1.40 1.59 1.72 1.59 1.29 1.02 0.82 0.65 0.62 0.64 0.55 0.51 0.50 0.44 0.40 0.45 0.39 0.34
1.10 1.05 0.97 0.93 0.91 0.85 0.72 0.58 0.52 0.47 0.47 0.49 0.51 0.52 0.50 0.44 0.44 0.49 0.54 0.52 0.51 0.53 0.61 0.71 0.85 1.08 1.29 1.52 1.58 1.46 1.36 1.10 0.84 0.68 0.65 0.57 0.48 0.45 0.45 0.43 0.45 0.42 0.38
1.19 1.13 1.08 1.05 1.03 0.98 0.84 0.65 0.56 0.52 0.54 0.52 0.52 0.53 0.56 0.49 0.44 0.40 0.46 0.47 0.46 0.45 0.44 0.52 0.63 0.83 1.07 1.24 1.43 1.43 1.32 1.18 0.95 0.70 0.59 0.54 0.45 0.42 0.41 0.37 0.38 0.40 0.38
1.07 1.02 1.00 1.03 1.06 1.04 0.93 0.68 0.57 0.52 0.56 0.58 0.62 0.63 0.58 0.48 0.44 0.35 0.40 0.44 0.42 0.41 0.46 0.46 0.51 0.59 0.72 0.96 1.17 1.21 1.13 1.07 0.94 0.73 0.54 0.50 0.42 0.42 0.42 0.32 0.27 0.28 0.31

GEFSMA_prec_meanprecacc_126.txt.gz
Total_Precipitation_Accumulation
1.94 2.02 1.73 1.64 1.59 1.77 2.01 1.98 1.86 1.94 2.08 2.11 1.94 1.83 1.67 1.37 1.24 1.19 1.30 1.62 1.63 1.65 1.87 1.88 1.81 1.70 1.55 1.35 1.22 1.12 1.06 0.97 0.84 0.68 0.61 0.49 0.39 0.32 0.21 0.14 0.11 0.10 0.07
1.86 1.73 1.71 1.70 1.61 1.74 1.80 1.85 1.89 2.09 2.18 2.28 2.00 1.86 1.72 1.58 1.45 1.40 1.33 1.60 1.63 1.54 1.67 1.94 2.01 1.98 1.96 1.78 1.56 1.43 1.30 1.21 1.01 0.75 0.65 0.59 0.48 0.40 0.32 0.26 0.23 0.16 0.11
1.78 1.76 1.67 1.55 1.58 1.67 1.77 1.81 1.84 1.95 1.86 1.93 1.89 1.86 1.79 1.67 1.60 1.48 1.39 1.37 1.26 1.42 1.60 1.79 1.94 1.99 2.09 2.02 1.95 1.85 1.62 1.38 1.14 0.85 0.65 0.61 0.54 0.44 0.39 0.35 0.33 0.27 0.20
1.55 1.56 1.42 1.39 1.48 1.39 1.40 1.46 1.44 1.47 1.52 1.65 1.66 1.57 1.56 1.56 1.50 1.48 1.39 1.26 1.23 1.06 1.37 1.71 1.82 1.74 1.91 2.11 2.30 2.34 1.95 1.49 1.19 0.96 0.75 0.62 0.58 0.47 0.36 0.31 0.29 0.31 0.24
1.04 1.06 1.01 1.03 1.07 1.06 1.06 1.01 1.18 1.24 1.31 1.43 1.45 1.31 1.26 1.37 1.36 1.35 1.30 1.12 1.20 1.11 1.11 1.29 1.54 1.51 1.75 2.14 2.48 2.59 2.34 1.82 1.38 1.19 1.03 0.87 0.79 0.63 0.44 0.35 0.29 0.26 0.22
0.87 0.82 0.77 0.78 0.74 0.76 0.82 0.86 0.92 0.98 1.00 1.04 1.03 1.00 1.04 0.97 1.06 1.09 1.00 1.02 0.98 0.84 0.86 1.02 1.31 1.18 1.51 1.88 2.19 2.34 2.43 2.31 1.89 1.53 1.33 1.27 1.20 0.95 0.59 0.45 0.38 0.32 0.25
0.69 0.71 0.61 0.59 0.55 0.55 0.58 0.60 0.67 0.71 0.71 0.77 0.85 0.82 0.75 0.68 0.72 0.73 0.75 0.84 0.79 0.80 0.88 0.96 1.09 1.14 1.11 1.25 1.43 1.75 2.22 2.41 2.26 1.89 1.61 1.43 1.39 1.20 0.82 0.62 0.50 0.46 0.41
0.51 0.49 0.48 0.45 0.44 0.45 0.50 0.51 0.52 0.52 0.52 0.59 0.68 0.73 0.64 0.58 0.53 0.46 0.56 0.55 0.57 0.77 0.84 0.82 0.90 1.07 1.06 1.22 1.02 1.18 1.71 2.14 2.42 2.31 2.00 1.65 1.45 1.24 1.00 0.83 0.66 0.56 0.50
0.37 0.38 0.37 0.37 0.41 0.41 0.45 0.48 0.45 0.44 0.43 0.43 0.51 0.64 0.62 0.54 0.46 0.40 0.42 0.46 0.55 0.66 0.70 0.84 0.85 0.84 0.87 1.07 1.21 1.16 1.28 1.50 2.08 2.51 2.48 2.02 1.53 1.19 1.06 1.03 0.93 0.78 0.63
0.33 0.30 0.30 0.29 0.29 0.33 0.41 0.39 0.42 0.43 0.41 0.34 0.36 0.44 0.48 0.51 0.52 0.48 0.43 0.43 0.52 0.58 0.60 0.63 0.67 0.78 0.92 1.05 1.15 1.13 0.98 1.07 1.50 2.04 2.37 2.24 1.82 1.40 1.15 1.12 1.29 1.24 0.96
0.37 0.32 0.32 0.29 0.25 0.24 0.27 0.30 0.39 0.44 0.44 0.38 0.35 0.37 0.40 0.41 0.44 0.46 0.38 0.36 0.40 0.38 0.42 0.49 0.61 0.69 0.79 0.99 1.21 1.08 0.88 0.82 0.99 1.36 1.70 1.87 1.84 1.57 1.30 1.22 1.49 1.68 1.49
0.42 0.36 0.34 0.32 0.29 0.25 0.22 0.23 0.30 0.38 0.43 0.44 0.38 0.34 0.40 0.42 0.42 0.45 0.34 0.28 0.31 0.26 0.29 0.34 0.45 0.60 0.73 0.90 0.92 0.91 0.92 0.86 0.87 0.96 1.13 1.32 1.50 1.50 1.43 1.47 1.67 1.90 1.95
0.39 0.33 0.30 0.30 0.28 0.27 0.26 0.25 0.26 0.30 0.35 0.41 0.39 0.37 0.37 0.36 0.42 0.43 0.35 0.29 0.33 0.32 0.42 0.41 0.46 0.65 0.71 0.92 0.91 0.91 0.90 0.87 0.76 0.71 0.76 0.85 0.98 1.17 1.34 1.44 1.61 1.81 1.99
0.44 0.41 0.33 0.28 0.27 0.26 0.25 0.27 0.25 0.26 0.30 0.34 0.34 0.43 0.41 0.31 0.38 0.40 0.41 0.48 0.47 0.49 0.54 0.52 0.60 0.83 1.05 1.08 1.07 0.95 0.77 0.75 0.66 0.61 0.56 0.59 0.65 0.76 0.88 1.00 1.15 1.28 1.40
0.47 0.45 0.39 0.32 0.29 0.29 0.28 0.28 0.26 0.27 0.29 0.32 0.37 0.46 0.47 0.43 0.43 0.43 0.47 0.58 0.66 0.58 0.58 0.66 0.77 0.86 0.96 0.97 0.97 0.86 0.70 0.69 0.62 0.55 0.51 0.48 0.49 0.54 0.61 0.66 0.70 0.77 0.85
0.43 0.42 0.37 0.32 0.33 0.33 0.31 0.32 0.30 0.32 0.34 0.39 0.46 0.51 0.56 0.56 0.56 0.56 0.56 0.64 0.77 0.75 0.70 0.69 0.76 0.77 0.77 0.63 0.66 0.66 0.64 0.65 0.57 0.52 0.49 0.46 0.43 0.44 0.46 0.52 0.56 0.57 0.60
0.45 0.41 0.38 0.35 0.34 0.33 0.34 0.37 0.35 0.34 0.35 0.41 0.45 0.50 0.55 0.61 0.68 0.70 0.74 0.74 0.77 0.87 0.82 0.69 0.79 0.87 0.79 0.63 0.54 0.54 0.55 0.56 0.54 0.53 0.50 0.49 0.47 0.45 0.43 0.42 0.46 0.50 0.49
0.45 0.44 0.41 0.36 0.31 0.29 0.35 0.41 0.40 0.37 0.38 0.40 0.46 0.55 0.57 0.59 0.66 0.73 0.83 0.84 0.85 0.98 0.96 0.82 0.88 0.97 0.89 0.77 0.64 0.56 0.46 0.44 0.46 0.51 0.51 0.51 0.50 0.47 0.44 0.42 0.39 0.38 0.38
0.47 0.47 0.46 0.42 0.36 0.34 0.34 0.37 0.40 0.42 0.45 0.47 0.51 0.59 0.64 0.70 0.72 0.76 0.84 0.86 0.91 1.06 1.10 1.02 0.99 1.10 1.13 0.92 0.72 0.56 0.46 0.46 0.41 0.45 0.49 0.50 0.49 0.46 0.43 0.42 0.42 0.38 0.34
0.51 0.55 0.57 0.56 0.51 0.46 0.41 0.40 0.42 0.42 0.46 0.52 0.60 0.61 0.64 0.74 0.81 0.86 0.92 1.02 1.08 1.16 1.23 1.19 1.20 1.30 1.30 1.17 0.95 0.67 0.58 0.56 0.50 0.43 0.47 0.49 0.47 0.44 0.41 0.37 0.35 0.36 0.36
0.70 0.79 0.81 0.76 0.70 0.61 0.51 0.50 0.50 0.44 0.50 0.51 0.56 0.61 0.62 0.65 0.72 0.84 0.89 1.00 1.14 1.29 1.44 1.49 1.48 1.63 1.58 1.41 1.16 0.85 0.72 0.64 0.58 0.52 0.50 0.43 0.41 0.38 0.36 0.36 0.35 0.35 0.33
0.93 0.99 0.96 0.92 0.88 0.69 0.64 0.59 0.54 0.52 0.53 0.55 0.59 0.63 0.61 0.58 0.58 0.63 0.71 0.82 0.95 1.11 1.31 1.51 1.63 1.72 1.78 1.64 1.43 1.17 0.85 0.65 0.58 0.57 0.59 0.52 0.47 0.44 0.39 0.35 0.39 0.36 0.35
0.98 0.99 0.96 0.93 0.89 0.84 0.71 0.57 0.52 0.52 0.55 0.59 0.61 0.62 0.54 0.46 0.51 0.52 0.56 0.60 0.67 0.77 0.92 1.13 1.32 1.42 1.61 1.73 1.60 1.30 1.03 0.82 0.66 0.62 0.64 0.55 0.52 0.50 0.44 0.40 0.45 0.39 0.34
1.21 1.14 1.04 1.00 0.97 0.91 0.78 0.64 0.60 0.54 0.55 0.57 0.60 0.61 0.57 0.50 0.49 0.54 0.58 0.56 0.55 0.57 0.64 0.74 0.88 1.10 1.31 1.53 1.59 1.47 1.37 1.11 0.85 0.68 0.65 0.57 0.48 0.45 0.45 0.43 0.45 0.42 0.38
1.29 1.22 1.16 1.12 1.10 1.06 0.92 0.72 0.62 0.59 0.62 0.59 0.57 0.58 0.60 0.53 0.49 0.44 0.50 0.52 0.51 0.51 0.50 0.57 0.67 0.85 1.09 1.26 1.44 1.43 1.33 1.19 0.95 0.71 0.60 0.54 0.45 0.42 0.41 0.37 0.38 0.40 0.38
1.18 1.12 1.09 1.12 1.14 1.12 1.02 0.76 0.63 0.57 0.60 0.61 0.65 0.66 0.63 0.54 0.50 0.41 0.44 0.49 0.46 0.45 0.49 0.49 0.53 0.62 0.73 0.97 1.18 1.22 1.14 1.07 0.94 0.73 0.54 0.50 0.42 0.42 0.43 0.32 0.27 0.28 0.31

GEFSMA_prec_meanprecacc_132.txt.gz
Total_Precipitation_Accumulation
2.01 2.09 1.81 1.71 1.66 1.83 2.08 2.06 1.93 2.02 2.16 2.17 1.98 1.85 1.68 1.39 1.30 1.23 1.32 1.63 1.64 1.67 1.89 1.89 1.82 1.71 1.56 1.36 1.23 1.14 1.08 0.98 0.85 0.69 0.62 0.50 0.39 0.32 0.22 0.15 0.12 0.10 0.08
1.93 1.80 1.79 1.78 1.68 1.81 1.86 1.90 1.94 2.15 2.25 2.35 2.06 1.89 1.73 1.58 1.47 1.42 1.36 1.62 1.65 1.56 1.69 1.95 2.02 1.99 1.97 1.78 1.57 1.44 1.31 1.22 1.02 0.76 0.67 0.60 0.49 0.41 0.33 0.26 0.23 0.16 0.11
1.86 1.82 1.74 1.61 1.64 1.73 1.82 1.85 1.89 2.01 1.92 1.99 1.97 1.90 1.81 1.68 1.61 1.50 1.43 1.41 1.29 1.44 1.60 1.80 1.94 2.00 2.09 2.02 1.97 1.86 1.63 1.39 1.15 0.86 0.66 0.62 0.55 0.45 0.40 0.35 0.34 0.27 0.20
1.62 1.62 1.47 1.44 1.52 1.42 1.44 1.51 1.48 1.53 1.59 1.72 1.74 1.63 1.60 1.59 1.51 1.50 1.42 1.30 1.29 1.09 1.39 1.72 1.83 1.75 1.91 2.12 2.31 2.36 1.97 1.51 1.20 0.97 0.76 0.63 0.59 0.48 0.37 0.31 0.30 0.31 0.24
1.09 1.11 1.07 1.10 1.12 1.10 1.10 1.04 1.22 1.29 1.40 1.50 1.50 1.37 1.30 1.40 1.39 1.36 1.31 1.13 1.22 1.15 1.14 1.31 1.54 1.52 1.76 2.14 2.49 2.59 2.35 1.84 1.40 1.20 1.04 0.89 0.81 0.64 0.45 0.36 0.30 0.27 0.22
0.92 0.87 0.84 0.84 0.78 0.81 0.88 0.92 1.00 1.04 1.06 1.09 1.07 1.06 1.08 1.00 1.09 1.12 1.03 1.04 0.99 0.85 0.89 1.05 1.33 1.19 1.51 1.89 2.20 2.35 2.45 2.34 1.92 1.55 1.35 1.28 1.22 0.97 0.61 0.46 0.39 0.33 0.25
0.75 0.77 0.68 0.66 0.60 0.60 0.63 0.64 0.71 0.76 0.76 0.80 0.91 0.91 0.80 0.70 0.74 0.74 0.78 0.87 0.80 0.81 0.90 1.01 1.13 1.18 1.13 1.26 1.43 1.76 2.23 2.43 2.27 1.90 1.63 1.44 1.41 1.22 0.83 0.63 0.51 0.47 0.42
0.56 0.54 0.55 0.52 0.50 0.52 0.54 0.56 0.57 0.58 0.58 0.62 0.73 0.81 0.73 0.65 0.57 0.47 0.57 0.56 0.60 0.80 0.86 0.85 0.93 1.12 1.09 1.26 1.03 1.18 1.71 2.15 2.44 2.33 2.02 1.67 1.47 1.26 1.01 0.84 0.67 0.56 0.50
0.40 0.41 0.42 0.43 0.46 0.46 0.50 0.52 0.49 0.49 0.49 0.47 0.54 0.71 0.71 0.64 0.54 0.45 0.45 0.48 0.57 0.68 0.72 0.86 0.86 0.86 0.90 1.11 1.25 1.18 1.29 1.51 2.09 2.52 2.49 2.04 1.55 1.20 1.08 1.04 0.95 0.79 0.64
0.37 0.34 0.34 0.33 0.33 0.37 0.47 0.42 0.45 0.47 0.46 0.39 0.40 0.47 0.52 0.57 0.59 0.57 0.49 0.46 0.53 0.59 0.62 0.64 0.68 0.80 0.94 1.07 1.19 1.15 0.99 1.08 1.51 2.05 2.38 2.26 1.84 1.42 1.16 1.14 1.31 1.26 0.98
0.45 0.37 0.37 0.34 0.30 0.29 0.34 0.35 0.45 0.48 0.47 0.41 0.38 0.40 0.43 0.45 0.47 0.51 0.46 0.42 0.44 0.40 0.42 0.49 0.62 0.70 0.80 1.00 1.22 1.08 0.88 0.82 1.00 1.37 1.71 1.88 1.85 1.58 1.31 1.23 1.51 1.71 1.52
0.51 0.43 0.40 0.38 0.33 0.29 0.29 0.29 0.36 0.42 0.47 0.48 0.42 0.37 0.43 0.44 0.45 0.48 0.39 0.33 0.35 0.29 0.30 0.35 0.46 0.60 0.73 0.90 0.92 0.92 0.93 0.86 0.87 0.96 1.13 1.32 1.50 1.51 1.44 1.47 1.68 1.91 1.96
0.45 0.41 0.39 0.38 0.33 0.32 0.31 0.31 0.32 0.36 0.42 0.46 0.44 0.40 0.39 0.38 0.43 0.45 0.38 0.33 0.37 0.36 0.46 0.44 0.48 0.65 0.71 0.92 0.91 0.92 0.91 0.87 0.76 0.71 0.76 0.86 0.98 1.17 1.34 1.44 1.62 1.81 1.99
0.48 0.47 0.42 0.36 0.34 0.33 0.31 0.34 0.31 0.31 0.34 0.38 0.37 0.45 0.43 0.33 0.39 0.41 0.43 0.50 0.51 0.54 0.60 0.55 0.62 0.85 1.06 1.08 1.08 0.96 0.78 0.75 0.66 0.61 0.57 0.59 0.65 0.76 0.88 1.01 1.15 1.28 1.41
0.53 0.54 0.47 0.39 0.38 0.39 0.39 0.38 0.33 0.32 0.34 0.36 0.40 0.48 0.48 0.44 0.44 0.44 0.48 0.60 0.69 0.63 0.63 0.70 0.79 0.88 0.98 1.00 1.00 0.87 0.72 0.71 0.64 0.56 0.51 0.48 0.49 0.54 0.61 0.66 0.70 0.78 0.85
0.52 0.54 0.48 0.40 0.40 0.40 0.41 0.42 0.37 0.39 0.41 0.44 0.49 0.54 0.59 0.58 0.57 0.57 0.57 0.65 0.78 0.77 0.73 0.72 0.79 0.81 0.81 0.67 0.68 0.67 0.65 0.67 0.58 0.52 0.50 0.47 0.44 0.44 0.47 0.52 0.56 0.58 0.60
0.58 0.54 0.50 0.45 0.41 0.39 0.41 0.46 0.46 0.43 0.43 0.47 0.50 0.54 0.59 0.66 0.72 0.73 0.76 0.76 0.79 0.89 0.85 0.72 0.82 0.91 0.83 0.65 0.55 0.55 0.56 0.57 0.54 0.53 0.50 0.49 0.47 0.45 0.44 0.42 0.46 0.50 0.49
0.55 0.55 0.52 0.47 0.39 0.36 0.42 0.47 0.49 0.45 0.45 0.48 0.55 0.64 0.65 0.65 0.72 0.78 0.87 0.88 0.89 1.02 1.01 0.88 0.93 1.02 0.92 0.79 0.65 0.57 0.47 0.44 0.46 0.51 0.51 0.51 0.50 0.47 0.44 0.42 0.39 0.38 0.38
0.58 0.56 0.56 0.52 0.46 0.42 0.42 0.44 0.48 0.51 0.54 0.56 0.61 0.69 0.73 0.78 0.80 0.82 0.89 0.91 0.96 1.10 1.15 1.07 1.04 1.14 1.15 0.94 0.75 0.59 0.48 0.49 0.41 0.45 0.49 0.50 0.49 0.46 0.43 0.42 0.42 0.38 0.34
0.63 0.64 0.66 0.67 0.62 0.56 0.50 0.48 0.50 0.52 0.57 0.62 0.69 0.69 0.71 0.80 0.87 0.93 0.99 1.09 1.14 1.21 1.29 1.26 1.25 1.36 1.36 1.23 1.00 0.73 0.64 0.61 0.53 0.44 0.48 0.49 0.48 0.45 0.41 0.37 0.35 0.36 0.36
0.83 0.91 0.92 0.87 0.80 0.71 0.59 0.59 0.58 0.53 0.59 0.59 0.63 0.68 0.68 0.70 0.77 0.89 0.94 1.07 1.22 1.38 1.54 1.59 1.58 1.72 1.68 1.50 1.23 0.91 0.78 0.69 0.61 0.54 0.51 0.44 0.41 0.38 0.36 0.36 0.35 0.35 0.33
1.07 1.13 1.09 1.04 1.00 0.78 0.73 0.67 0.63 0.62 0.63 0.64 0.67 0.71 0.68 0.65 0.64 0.69 0.76 0.88 1.02 1.19 1.40 1.60 1.72 1.81 1.85 1.70 1.49 1.23 0.90 0.69 0.61 0.59 0.60 0.53 0.47 0.44 0.39 0.35 0.39 0.36 0.35
1.11 1.13 1.11 1.06 0.99 0.92 0.78 0.63 0.58 0.59 0.65 0.70 0.72 0.74 0.64 0.54 0.59 0.59 0.62 0.66 0.73 0.83 0.97 1.19 1.39 1.48 1.66 1.78 1.64 1.34 1.06 0.85 0.68 0.63 0.65 0.56 0.52 0.50 0.44 0.40 0.45 0.39 0.34
1.38 1.30 1.19 1.14 1.11 1.01 0.85 0.70 0.66 0.62 0.65 0.66 0.68 0.70 0.67 0.58 0.56 0.61 0.64 0.61 0.59 0.60 0.68 0.77 0.92 1.13 1.34 1.55 1.61 1.50 1.39 1.13 0.86 0.69 0.66 0.58 0.48 0.45 0.45 0.43 0.45 0.42 0.38
1.45 1.39 1.33 1.27 1.24 1.16 1.01 0.79 0.70 0.67 0.70 0.67 0.65 0.65 0.66 0.58 0.55 0.49 0.55 0.56 0.54 0.53 0.53 0.59 0.68 0.86 1.10 1.27 1.45 1.44 1.33 1.20 0.96 0.71 0.60 0.55 0.45 0.42 0.41 0.37 0.38 0.40 0.38
1.31 1.26 1.24 1.26 1.25 1.23 1.14 0.85 0.70 0.65 0.69 0.69 0.74 0.73 0.70 0.59 0.55 0.45 0.48 0.52 0.50 0.48 0.52 0.51 0.55 0.63 0.75 0.98 1.20 1.23 1.15 1.08 0.95 0.73 0.54 0.50 0.43 0.42 0.43 0.32 0.27 0.28 0.31